Time,TemperatureF,DewpointF,PressureIn,WindDirection,WindDirectionDegrees,WindSpeedMPH,WindSpeedGustMPH,Humidity,HourlyPrecipIn,Conditions,Clouds,dailyrainin,SoftwareType,DateUTC
2013-03-20 00:02:00,20.1,-8.5,0.00,West,272,0.0,0.0,27,0.00,,---,0.00,VWS V14.00,2013-03-20 06:02:00,
2013-03-20 00:03:00,19.9,-8.6,0.00,West,273,0.0,0.0,27,0.00,,---,0.00,VWS V14.00,2013-03-20 06:03:00,
2013-03-20 00:04:00,19.9,-8.6,0.00,West,273,0.0,0.0,27,0.00,,---,0.00,VWS V14.00,2013-03-20 06:04:00,
2013-03-20 00:07:00,19.9,-8.6,0.00,West,272,0.0,0.0,27,0.00,,---,0.00,VWS V14.00,2013-03-20 06:07:00,
2013-03-20 00:08:00,19.9,-8.6,0.00,West,273,0.0,0.0,27,0.00,,---,0.00,VWS V14.00,2013-03-20 06:08:00,
2013-03-20 00:09:00,19.9,-8.6,0.00,West,272,0.0,0.0,27,0.00,,---,0.00,VWS V14.00,2013-03-20 06:09:00,
2013-03-20 00:12:00,19.8,-6.7,0.00,West,272,0.0,0.0,30,0.00,,---,0.00,VWS V14.00,2013-03-20 06:12:00,
2013-03-20 00:13:00,19.8,-6.7,0.00,West,272,0.0,0.0,30,0.00,,---,0.00,VWS V14.00,2013-03-20 06:13:00,
2013-03-20 00:14:00,19.6,-6.8,0.00,West,272,0.0,0.0,30,0.00,,---,0.00,VWS V14.00,2013-03-20 06:14:00,
2013-03-20 00:18:00,19.6,-6.8,0.00,West,272,0.0,0.0,30,0.00,,---,0.00,VWS V14.00,2013-03-20 06:18:00,
2013-03-20 00:19:00,19.4,-7.0,0.00,West,266,0.0,0.0,30,0.00,,---,0.00,VWS V14.00,2013-03-20 06:19:00,
2013-03-20 00:23:00,19.4,-7.0,0.00,West,273,0.0,0.0,30,0.00,,---,0.00,VWS V14.00,2013-03-20 06:23:00,
2013-03-20 00:24:00,19.2,-7.1,0.00,West,268,0.0,0.0,30,0.00,,---,0.00,VWS V14.00,2013-03-20 06:24:00,
2013-03-20 00:28:00,19.2,-7.1,0.00,West,272,0.0,0.0,30,0.00,,---,0.00,VWS V14.00,2013-03-20 06:28:00,
2013-03-20 00:29:00,19.0,-5.3,0.00,West,272,0.0,0.0,33,0.00,,---,0.00,VWS V14.00,2013-03-20 06:29:00,
2013-03-20 00:33:00,19.0,-5.3,0.00,West,272,0.0,0.0,33,0.00,,---,0.00,VWS V14.00,2013-03-20 06:33:00,
2013-03-20 00:34:00,18.9,-5.5,0.00,West,272,0.0,0.0,33,0.00,,---,0.00,VWS V14.00,2013-03-20 06:34:00,
2013-03-20 00:38:00,18.7,-5.6,0.00,West,272,0.0,0.0,33,0.00,,---,0.00,VWS V14.00,2013-03-20 06:38:00,
2013-03-20 00:39:00,18.5,-5.8,0.00,West,272,0.0,0.0,33,0.00,,---,0.00,VWS V14.00,2013-03-20 06:39:00,
2013-03-20 00:43:00,18.5,-5.8,0.00,West,272,0.0,0.0,33,0.00,,---,0.00,VWS V14.00,2013-03-20 06:43:00,
2013-03-20 00:44:00,18.3,-6.0,0.00,West,272,0.0,0.0,33,0.00,,---,0.00,VWS V14.00,2013-03-20 06:44:00,
2013-03-20 00:45:00,18.3,-6.0,0.00,West,272,0.0,0.0,33,0.00,,---,0.00,VWS V14.00,2013-03-20 06:45:00,
2013-03-20 00:48:00,18.3,-6.0,0.00,West,272,0.0,0.0,33,0.00,,---,0.00,VWS V14.00,2013-03-20 06:48:00,
2013-03-20 00:49:00,18.1,-6.1,0.00,West,272,0.0,0.0,33,0.00,,---,0.00,VWS V14.00,2013-03-20 06:49:00,
2013-03-20 00:50:00,18.1,-6.1,0.00,West,268,0.0,0.0,33,0.00,,---,0.00,VWS V14.00,2013-03-20 06:50:00,
2013-03-20 00:53:00,18.1,-6.1,0.00,West,273,0.0,0.0,33,0.00,,---,0.00,VWS V14.00,2013-03-20 06:53:00,
2013-03-20 00:54:00,18.0,-6.3,0.00,West,272,0.0,0.0,33,0.00,,---,0.00,VWS V14.00,2013-03-20 06:54:00,
2013-03-20 00:55:00,18.0,-6.3,0.00,West,271,0.0,0.0,33,0.00,,---,0.00,VWS V14.00,2013-03-20 06:55:00,
2013-03-20 00:58:00,17.8,-6.4,0.00,West,273,0.0,0.0,33,0.00,,---,0.00,VWS V14.00,2013-03-20 06:58:00,
2013-03-20 00:59:00,17.8,-6.4,0.00,West,272,0.0,0.0,33,0.00,,---,0.00,VWS V14.00,2013-03-20 06:59:00,
2013-03-20 01:00:00,17.8,-6.4,0.00,West,272,0.0,0.0,33,0.00,,---,0.00,VWS V14.00,2013-03-20 07:00:00,
2013-03-20 01:03:00,17.6,-6.0,0.00,West,269,0.0,0.0,34,0.00,,---,0.00,VWS V14.00,2013-03-20 07:03:00,
2013-03-20 01:05:00,17.6,-6.0,0.00,West,273,0.0,0.0,34,0.00,,---,0.00,VWS V14.00,2013-03-20 07:05:00,
2013-03-20 01:08:00,17.4,-6.1,0.00,West,276,0.0,0.0,34,0.00,,---,0.00,VWS V14.00,2013-03-20 07:08:00,
2013-03-20 01:10:00,17.4,-6.1,0.00,West,277,0.0,0.0,34,0.00,,---,0.00,VWS V14.00,2013-03-20 07:10:00,
2013-03-20 01:13:00,17.4,-6.1,0.00,West,276,0.0,0.0,34,0.00,,---,0.00,VWS V14.00,2013-03-20 07:13:00,
2013-03-20 01:15:00,17.2,-6.3,0.00,West,276,0.0,0.0,34,0.00,,---,0.00,VWS V14.00,2013-03-20 07:15:00,
2013-03-20 01:18:00,17.1,-6.5,0.00,West,276,0.0,0.0,34,0.00,,---,0.00,VWS V14.00,2013-03-20 07:18:00,
2013-03-20 01:20:00,17.1,-6.5,0.00,West,276,0.0,0.0,34,0.00,,---,0.00,VWS V14.00,2013-03-20 07:20:00,
2013-03-20 01:24:00,16.9,-6.6,0.00,West,278,0.0,0.0,34,0.00,,---,0.00,VWS V14.00,2013-03-20 07:24:00,
2013-03-20 01:25:00,16.9,-6.6,0.00,West,278,0.0,0.0,34,0.00,,---,0.00,VWS V14.00,2013-03-20 07:25:00,
2013-03-20 01:26:00,16.9,-6.6,0.00,West,278,0.0,0.0,34,0.00,,---,0.00,VWS V14.00,2013-03-20 07:26:00,
2013-03-20 01:29:00,16.7,-6.8,0.00,West,266,0.0,0.0,34,0.00,,---,0.00,VWS V14.00,2013-03-20 07:29:00,
2013-03-20 01:30:00,16.7,-6.8,0.00,WSW,246,0.0,0.0,34,0.00,,---,0.00,VWS V14.00,2013-03-20 07:30:00,
2013-03-20 01:31:00,16.5,-6.9,0.00,WSW,237,0.0,0.0,34,0.00,,---,0.00,VWS V14.00,2013-03-20 07:31:00,
2013-03-20 01:34:00,16.5,-6.9,0.00,WSW,245,0.0,0.0,34,0.00,,---,0.00,VWS V14.00,2013-03-20 07:34:00,
2013-03-20 01:35:00,16.5,-6.9,0.00,SW,232,0.0,0.0,34,0.00,,---,0.00,VWS V14.00,2013-03-20 07:35:00,
2013-03-20 01:36:00,16.3,-7.1,0.00,SW,232,0.0,0.0,34,0.00,,---,0.00,VWS V14.00,2013-03-20 07:36:00,
2013-03-20 01:39:00,16.2,-7.3,0.00,SW,234,0.0,0.0,34,0.00,,---,0.00,VWS V14.00,2013-03-20 07:39:00,
2013-03-20 01:40:00,16.2,-7.3,0.00,SW,234,0.0,0.0,34,0.00,,---,0.00,VWS V14.00,2013-03-20 07:40:00,
2013-03-20 01:41:00,16.2,-7.3,0.00,SW,234,0.0,0.0,34,0.00,,---,0.00,VWS V14.00,2013-03-20 07:41:00,
2013-03-20 01:44:00,16.2,-7.3,0.00,SW,234,0.0,0.0,34,0.00,,---,0.00,VWS V14.00,2013-03-20 07:44:00,
2013-03-20 01:45:00,16.2,-7.3,0.00,SW,234,0.0,0.0,34,0.00,,---,0.00,VWS V14.00,2013-03-20 07:45:00,
2013-03-20 01:46:00,16.0,-7.4,0.00,SW,231,0.0,0.0,34,0.00,,---,0.00,VWS V14.00,2013-03-20 07:46:00,
2013-03-20 01:47:00,16.0,-7.4,0.00,SW,234,0.0,0.0,34,0.00,,---,0.00,VWS V14.00,2013-03-20 07:47:00,
2013-03-20 01:49:00,16.0,-7.4,0.00,SW,234,0.0,0.0,34,0.00,,---,0.00,VWS V14.00,2013-03-20 07:49:00,
2013-03-20 01:51:00,16.0,-7.4,0.00,SW,229,0.0,0.0,34,0.00,,---,0.00,VWS V14.00,2013-03-20 07:51:00,
2013-03-20 01:52:00,15.8,-7.0,0.00,SW,234,0.0,0.0,35,0.00,,---,0.00,VWS V14.00,2013-03-20 07:52:00,
2013-03-20 01:54:00,15.8,-7.0,0.00,SW,230,0.0,0.0,35,0.00,,---,0.00,VWS V14.00,2013-03-20 07:54:00,
2013-03-20 01:56:00,15.8,-7.0,0.00,SW,233,0.0,0.0,35,0.00,,---,0.00,VWS V14.00,2013-03-20 07:56:00,
2013-03-20 01:57:00,15.8,-7.0,0.00,SW,234,0.0,0.0,35,0.00,,---,0.00,VWS V14.00,2013-03-20 07:57:00,
2013-03-20 02:00:00,15.6,-7.2,0.00,SW,234,0.0,0.0,35,0.00,,---,0.00,VWS V14.00,2013-03-20 08:00:00,
2013-03-20 02:01:00,15.6,-7.2,0.00,SW,234,0.0,0.0,35,0.00,,---,0.00,VWS V14.00,2013-03-20 08:01:00,
2013-03-20 02:02:00,15.6,-7.2,0.00,SW,234,0.0,0.0,35,0.00,,---,0.00,VWS V14.00,2013-03-20 08:02:00,
2013-03-20 02:05:00,15.4,-7.3,0.00,SW,234,0.0,0.0,35,0.00,,---,0.00,VWS V14.00,2013-03-20 08:05:00,
2013-03-20 02:06:00,15.4,-7.3,0.00,SW,234,0.0,0.0,35,0.00,,---,0.00,VWS V14.00,2013-03-20 08:06:00,
2013-03-20 02:07:00,15.4,-7.3,0.00,SW,234,0.0,0.0,35,0.00,,---,0.00,VWS V14.00,2013-03-20 08:07:00,
2013-03-20 02:08:00,15.4,-7.3,0.00,SW,234,0.0,0.0,35,0.00,,---,0.00,VWS V14.00,2013-03-20 08:08:00,
2013-03-20 02:10:00,15.3,-7.5,0.00,SW,234,0.0,0.0,35,0.00,,---,0.00,VWS V14.00,2013-03-20 08:10:00,
2013-03-20 02:11:00,15.3,-7.5,0.00,SW,234,0.0,0.0,35,0.00,,---,0.00,VWS V14.00,2013-03-20 08:11:00,
2013-03-20 02:13:00,15.3,-7.5,0.00,SW,232,0.0,0.0,35,0.00,,---,0.00,VWS V14.00,2013-03-20 08:13:00,
2013-03-20 02:15:00,15.3,-7.5,0.00,South,173,0.0,0.0,35,0.00,,---,0.00,VWS V14.00,2013-03-20 08:15:00,
2013-03-20 02:16:00,15.3,-7.5,0.00,South,173,0.0,0.0,35,0.00,,---,0.00,VWS V14.00,2013-03-20 08:16:00,
2013-03-20 02:18:00,15.3,-7.5,0.00,South,179,0.0,0.0,35,0.00,,---,0.00,VWS V14.00,2013-03-20 08:18:00,
2013-03-20 02:20:00,15.1,-7.6,0.00,SSW,196,0.0,0.0,35,0.00,,---,0.00,VWS V14.00,2013-03-20 08:20:00,
2013-03-20 02:22:00,15.1,-7.6,0.00,SSW,196,0.0,0.0,35,0.00,,---,0.00,VWS V14.00,2013-03-20 08:22:00,
2013-03-20 02:23:00,15.1,-7.6,0.00,SSW,196,0.0,0.0,35,0.00,,---,0.00,VWS V14.00,2013-03-20 08:23:00,
2013-03-20 02:25:00,15.1,-7.6,0.00,SSW,196,0.0,0.0,35,0.00,,---,0.00,VWS V14.00,2013-03-20 08:25:00,
2013-03-20 02:27:00,15.1,-7.6,0.00,SSW,196,0.0,0.0,35,0.00,,---,0.00,VWS V14.00,2013-03-20 08:27:00,
2013-03-20 02:28:00,15.1,-7.6,0.00,SSW,196,0.0,0.0,35,0.00,,---,0.00,VWS V14.00,2013-03-20 08:28:00,
2013-03-20 02:30:00,14.9,-7.8,0.00,SSW,195,0.0,0.0,35,0.00,,---,0.00,VWS V14.00,2013-03-20 08:30:00,
2013-03-20 02:32:00,14.9,-7.8,0.00,South,187,0.0,0.0,35,0.00,,---,0.00,VWS V14.00,2013-03-20 08:32:00,
2013-03-20 02:33:00,14.9,-7.8,0.00,SSW,195,0.0,0.0,35,0.00,,---,0.00,VWS V14.00,2013-03-20 08:33:00,
2013-03-20 02:35:00,14.9,-7.8,0.00,SSW,194,0.0,0.0,35,0.00,,---,0.00,VWS V14.00,2013-03-20 08:35:00,
2013-03-20 02:37:00,14.9,-7.8,0.00,South,190,0.0,0.0,35,0.00,,---,0.00,VWS V14.00,2013-03-20 08:37:00,
2013-03-20 02:38:00,14.9,-7.2,0.00,SSW,195,0.0,0.0,36,0.00,,---,0.00,VWS V14.00,2013-03-20 08:38:00,
2013-03-20 02:40:00,14.7,-8.0,0.00,SSE,166,0.0,3.1,35,0.00,,---,0.00,VWS V14.00,2013-03-20 08:40:00,
2013-03-20 02:42:00,14.7,-8.0,0.00,SSE,165,0.0,0.0,35,0.00,,---,0.00,VWS V14.00,2013-03-20 08:42:00,
2013-03-20 02:43:00,14.7,-8.0,0.00,SSE,167,0.0,0.0,35,0.00,,---,0.00,VWS V14.00,2013-03-20 08:43:00,
2013-03-20 02:45:00,14.7,-8.0,0.00,SSE,167,0.0,0.0,35,0.00,,---,0.00,VWS V14.00,2013-03-20 08:45:00,
2013-03-20 02:47:00,14.5,-8.1,0.00,South,169,0.0,0.0,35,0.00,,---,0.00,VWS V14.00,2013-03-20 08:47:00,
2013-03-20 02:48:00,14.5,-8.1,0.00,South,169,0.0,0.0,35,0.00,,---,0.00,VWS V14.00,2013-03-20 08:48:00,
2013-03-20 02:49:00,14.5,-8.1,0.00,SSW,204,0.0,0.0,35,0.00,,---,0.00,VWS V14.00,2013-03-20 08:49:00,
2013-03-20 02:50:00,14.5,-8.1,0.00,SW,221,0.0,0.0,35,0.00,,---,0.00,VWS V14.00,2013-03-20 08:50:00,
2013-03-20 02:53:00,14.5,-8.1,0.00,WSW,243,0.0,0.0,35,0.00,,---,0.00,VWS V14.00,2013-03-20 08:53:00,
2013-03-20 02:54:00,14.5,-8.1,0.00,WSW,245,0.0,0.0,35,0.00,,---,0.00,VWS V14.00,2013-03-20 08:54:00,
2013-03-20 02:55:00,14.5,-8.1,0.00,East,90,0.0,3.6,35,0.00,,---,0.00,VWS V14.00,2013-03-20 08:55:00,
2013-03-20 02:58:00,14.5,-8.1,0.00,WNW,303,2.2,3.6,35,0.00,,---,0.00,VWS V14.00,2013-03-20 08:58:00,
2013-03-20 02:59:00,14.5,-8.1,0.00,West,267,2.2,2.2,35,0.00,,---,0.00,VWS V14.00,2013-03-20 08:59:00,
2013-03-20 03:00:00,14.5,-8.1,0.00,West,268,0.0,2.2,35,0.00,,---,0.00,VWS V14.00,2013-03-20 09:00:00,
2013-03-20 03:03:00,14.5,-8.1,0.00,West,270,0.0,0.0,35,0.00,,---,0.00,VWS V14.00,2013-03-20 09:03:00,
2013-03-20 03:04:00,14.4,-8.3,0.00,WNW,300,2.2,3.6,35,0.00,,---,0.00,VWS V14.00,2013-03-20 09:04:00,
2013-03-20 03:05:00,14.4,-8.3,0.00,WNW,297,0.0,0.0,35,0.00,,---,0.00,VWS V14.00,2013-03-20 09:05:00,
2013-03-20 03:08:00,14.4,-8.3,0.00,ESE,104,0.0,4.0,35,0.00,,---,0.00,VWS V14.00,2013-03-20 09:08:00,
2013-03-20 03:09:00,14.4,-8.3,0.00,ESE,103,0.0,0.0,35,0.00,,---,0.00,VWS V14.00,2013-03-20 09:09:00,
2013-03-20 03:10:00,14.4,-8.3,0.00,ESE,102,0.0,0.0,35,0.00,,---,0.00,VWS V14.00,2013-03-20 09:10:00,
2013-03-20 03:13:00,14.5,-8.1,0.00,East,98,0.0,0.0,35,0.00,,---,0.00,VWS V14.00,2013-03-20 09:13:00,
2013-03-20 03:14:00,14.5,-8.1,0.00,ESE,104,3.6,3.6,35,0.00,,---,0.00,VWS V14.00,2013-03-20 09:14:00,
2013-03-20 03:15:00,14.5,-8.1,0.00,ESE,108,3.6,7.6,35,0.00,,---,0.00,VWS V14.00,2013-03-20 09:15:00,
2013-03-20 03:16:00,14.5,-8.1,0.00,ESE,105,0.0,3.6,35,0.00,,---,0.00,VWS V14.00,2013-03-20 09:16:00,
2013-03-20 03:18:00,14.5,-8.1,0.00,NNW,335,2.7,2.7,35,0.00,,---,0.00,VWS V14.00,2013-03-20 09:18:00,
2013-03-20 03:19:00,14.5,-8.1,0.00,NNW,341,3.6,3.6,35,0.00,,---,0.00,VWS V14.00,2013-03-20 09:19:00,
2013-03-20 03:20:00,14.5,-8.1,0.00,ESE,119,2.7,3.6,35,0.00,,---,0.00,VWS V14.00,2013-03-20 09:20:00,
2013-03-20 03:21:00,14.5,-8.1,0.00,ESE,119,0.0,0.0,35,0.00,,---,0.00,VWS V14.00,2013-03-20 09:21:00,
2013-03-20 03:23:00,14.5,-8.1,0.00,ESE,119,0.0,0.0,35,0.00,,---,0.00,VWS V14.00,2013-03-20 09:23:00,
2013-03-20 03:24:00,14.5,-8.1,0.00,ESE,117,0.0,0.0,35,0.00,,---,0.00,VWS V14.00,2013-03-20 09:24:00,
2013-03-20 03:25:00,14.5,-8.1,0.00,ESE,119,0.0,0.0,35,0.00,,---,0.00,VWS V14.00,2013-03-20 09:25:00,
2013-03-20 03:26:00,14.5,-8.1,0.00,ESE,115,0.0,0.0,35,0.00,,---,0.00,VWS V14.00,2013-03-20 09:26:00,
2013-03-20 03:28:00,14.7,-8.0,0.00,ESE,120,0.0,0.0,35,0.00,,---,0.00,VWS V14.00,2013-03-20 09:28:00,
2013-03-20 03:29:00,14.7,-8.0,0.00,ESE,120,0.0,0.0,35,0.00,,---,0.00,VWS V14.00,2013-03-20 09:29:00,
2013-03-20 03:30:00,14.7,-8.0,0.00,SE,137,0.0,0.0,35,0.00,,---,0.00,VWS V14.00,2013-03-20 09:30:00,
2013-03-20 03:31:00,14.7,-8.0,0.00,WSW,249,0.0,0.0,35,0.00,,---,0.00,VWS V14.00,2013-03-20 09:31:00,
2013-03-20 03:33:00,14.9,-7.8,0.00,West,259,0.0,0.0,35,0.00,,---,0.00,VWS V14.00,2013-03-20 09:33:00,
2013-03-20 03:34:00,14.9,-7.8,0.00,West,259,0.0,0.0,35,0.00,,---,0.00,VWS V14.00,2013-03-20 09:34:00,
2013-03-20 03:35:00,14.9,-7.8,0.00,WSW,258,0.0,0.0,35,0.00,,---,0.00,VWS V14.00,2013-03-20 09:35:00,
2013-03-20 03:36:00,14.9,-7.8,0.00,WNW,284,0.0,0.0,35,0.00,,---,0.00,VWS V14.00,2013-03-20 09:36:00,
2013-03-20 03:38:00,14.9,-7.8,0.00,WNW,287,0.0,0.0,35,0.00,,---,0.00,VWS V14.00,2013-03-20 09:38:00,
2013-03-20 03:39:00,14.9,-7.8,0.00,WNW,289,3.1,3.1,35,0.00,,---,0.00,VWS V14.00,2013-03-20 09:39:00,
2013-03-20 03:40:00,14.9,-7.8,0.00,WNW,289,0.0,3.1,35,0.00,,---,0.00,VWS V14.00,2013-03-20 09:40:00,
2013-03-20 03:41:00,14.9,-7.8,0.00,WNW,289,0.0,0.0,35,0.00,,---,0.00,VWS V14.00,2013-03-20 09:41:00,
2013-03-20 03:43:00,15.1,-8.2,0.00,WNW,289,0.0,0.0,34,0.00,,---,0.00,VWS V14.00,2013-03-20 09:43:00,
2013-03-20 03:44:00,15.1,-8.2,0.00,WNW,289,0.0,0.0,34,0.00,,---,0.00,VWS V14.00,2013-03-20 09:44:00,
2013-03-20 03:45:00,15.1,-8.2,0.00,WNW,289,0.0,0.0,34,0.00,,---,0.00,VWS V14.00,2013-03-20 09:45:00,
2013-03-20 03:47:00,15.1,-8.2,0.00,WSW,247,0.0,0.0,34,0.00,,---,0.00,VWS V14.00,2013-03-20 09:47:00,
2013-03-20 03:49:00,15.1,-8.2,0.00,West,260,0.0,0.0,34,0.00,,---,0.00,VWS V14.00,2013-03-20 09:49:00,
2013-03-20 03:50:00,15.1,-7.6,0.00,West,263,0.0,0.0,35,0.00,,---,0.00,VWS V14.00,2013-03-20 09:50:00,
2013-03-20 03:52:00,15.1,-7.6,0.00,West,263,0.0,0.0,35,0.00,,---,0.00,VWS V14.00,2013-03-20 09:52:00,
2013-03-20 03:54:00,15.1,-7.6,0.00,West,270,0.0,0.0,35,0.00,,---,0.00,VWS V14.00,2013-03-20 09:54:00,
2013-03-20 03:55:00,15.1,-7.6,0.00,West,271,0.0,0.0,35,0.00,,---,0.00,VWS V14.00,2013-03-20 09:55:00,
2013-03-20 03:57:00,15.1,-7.6,0.00,WNW,292,3.1,3.1,35,0.00,,---,0.00,VWS V14.00,2013-03-20 09:57:00,
2013-03-20 03:59:00,15.1,-7.6,0.00,WNW,294,2.2,4.0,35,0.00,,---,0.00,VWS V14.00,2013-03-20 09:59:00,
2013-03-20 04:00:00,15.1,-7.6,0.00,West,270,0.0,0.0,35,0.00,,---,0.00,VWS V14.00,2013-03-20 10:00:00,
2013-03-20 04:02:00,15.1,-7.6,0.00,WSW,253,0.0,0.0,35,0.00,,---,0.00,VWS V14.00,2013-03-20 10:02:00,
2013-03-20 04:04:00,15.1,-7.6,0.00,WSW,253,0.0,0.0,35,0.00,,---,0.00,VWS V14.00,2013-03-20 10:04:00,
2013-03-20 04:05:00,15.1,-7.6,0.00,WSW,253,0.0,0.0,35,0.00,,---,0.00,VWS V14.00,2013-03-20 10:05:00,
2013-03-20 04:07:00,15.1,-7.6,0.00,WSW,256,0.0,0.0,35,0.00,,---,0.00,VWS V14.00,2013-03-20 10:07:00,
2013-03-20 04:09:00,15.1,-7.6,0.00,WSW,257,0.0,0.0,35,0.00,,---,0.00,VWS V14.00,2013-03-20 10:09:00,
2013-03-20 04:10:00,15.1,-7.6,0.00,WSW,257,0.0,0.0,35,0.00,,---,0.00,VWS V14.00,2013-03-20 10:10:00,
2013-03-20 04:12:00,15.1,-7.6,0.00,WSW,256,0.0,0.0,35,0.00,,---,0.00,VWS V14.00,2013-03-20 10:12:00,
2013-03-20 04:14:00,15.1,-7.6,0.00,WSW,258,0.0,0.0,35,0.00,,---,0.00,VWS V14.00,2013-03-20 10:14:00,
2013-03-20 04:15:00,15.1,-7.6,0.00,WSW,258,0.0,0.0,35,0.00,,---,0.00,VWS V14.00,2013-03-20 10:15:00,
2013-03-20 04:17:00,15.1,-7.6,0.00,WSW,257,0.0,0.0,35,0.00,,---,0.00,VWS V14.00,2013-03-20 10:17:00,
2013-03-20 04:19:00,15.1,-7.6,0.00,WSW,258,0.0,0.0,35,0.00,,---,0.00,VWS V14.00,2013-03-20 10:19:00,
2013-03-20 04:20:00,15.1,-7.6,0.00,WSW,257,0.0,0.0,35,0.00,,---,0.00,VWS V14.00,2013-03-20 10:20:00,
2013-03-20 04:22:00,15.1,-8.2,0.00,WSW,257,0.0,0.0,34,0.00,,---,0.00,VWS V14.00,2013-03-20 10:22:00,
2013-03-20 04:24:00,15.1,-8.2,0.00,WSW,252,0.0,0.0,34,0.00,,---,0.00,VWS V14.00,2013-03-20 10:24:00,
2013-03-20 04:25:00,15.1,-8.2,0.00,WSW,258,0.0,0.0,34,0.00,,---,0.00,VWS V14.00,2013-03-20 10:25:00,
2013-03-20 04:27:00,15.1,-8.2,0.00,WNW,284,0.0,0.0,34,0.00,,---,0.00,VWS V14.00,2013-03-20 10:27:00,
2013-03-20 04:29:00,15.3,-8.1,0.00,WNW,284,0.0,0.0,34,0.00,,---,0.00,VWS V14.00,2013-03-20 10:29:00,
2013-03-20 04:30:00,15.3,-8.1,0.00,WNW,284,0.0,0.0,34,0.00,,---,0.00,VWS V14.00,2013-03-20 10:30:00,
2013-03-20 04:32:00,15.3,-8.1,0.00,WNW,284,0.0,0.0,34,0.00,,---,0.00,VWS V14.00,2013-03-20 10:32:00,
2013-03-20 04:34:00,15.3,-8.1,0.00,West,279,0.0,0.0,34,0.00,,---,0.00,VWS V14.00,2013-03-20 10:34:00,
2013-03-20 04:35:00,15.3,-8.1,0.00,WNW,283,0.0,0.0,34,0.00,,---,0.00,VWS V14.00,2013-03-20 10:35:00,
2013-03-20 04:37:00,15.3,-8.1,0.00,WNW,284,0.0,0.0,34,0.00,,---,0.00,VWS V14.00,2013-03-20 10:37:00,
2013-03-20 04:39:00,15.3,-8.1,0.00,WNW,283,0.0,0.0,34,0.00,,---,0.00,VWS V14.00,2013-03-20 10:39:00,
2013-03-20 04:40:00,15.3,-8.1,0.00,West,273,0.0,0.0,34,0.00,,---,0.00,VWS V14.00,2013-03-20 10:40:00,
2013-03-20 04:42:00,15.3,-8.1,0.00,WNW,282,0.0,0.0,34,0.00,,---,0.00,VWS V14.00,2013-03-20 10:42:00,
2013-03-20 04:44:00,15.3,-8.1,0.00,West,281,0.0,0.0,34,0.00,,---,0.00,VWS V14.00,2013-03-20 10:44:00,
2013-03-20 04:45:00,15.3,-8.1,0.00,West,281,0.0,0.0,34,0.00,,---,0.00,VWS V14.00,2013-03-20 10:45:00,
2013-03-20 04:47:00,15.3,-8.1,0.00,West,279,0.0,0.0,34,0.00,,---,0.00,VWS V14.00,2013-03-20 10:47:00,
2013-03-20 04:49:00,15.3,-8.1,0.00,West,278,0.0,0.0,34,0.00,,---,0.00,VWS V14.00,2013-03-20 10:49:00,
2013-03-20 04:50:00,15.3,-8.1,0.00,WNW,282,0.0,0.0,34,0.00,,---,0.00,VWS V14.00,2013-03-20 10:50:00,
2013-03-20 04:52:00,15.3,-8.1,0.00,WNW,283,0.0,0.0,34,0.00,,---,0.00,VWS V14.00,2013-03-20 10:52:00,
2013-03-20 04:55:00,15.3,-8.1,0.00,West,281,0.0,0.0,34,0.00,,---,0.00,VWS V14.00,2013-03-20 10:55:00,
2013-03-20 04:57:00,15.3,-8.1,0.00,WNW,283,0.0,0.0,34,0.00,,---,0.00,VWS V14.00,2013-03-20 10:57:00,
2013-03-20 05:00:00,15.3,-8.1,0.00,West,280,0.0,0.0,34,0.00,,---,0.00,VWS V14.00,2013-03-20 11:00:00,
2013-03-20 05:01:00,15.3,-8.1,0.00,West,280,0.0,0.0,34,0.00,,---,0.00,VWS V14.00,2013-03-20 11:01:00,
2013-03-20 05:03:00,15.3,-8.1,0.00,West,280,0.0,0.0,34,0.00,,---,0.00,VWS V14.00,2013-03-20 11:03:00,
2013-03-20 05:05:00,15.3,-8.1,0.00,West,280,0.0,0.0,34,0.00,,---,0.00,VWS V14.00,2013-03-20 11:05:00,
2013-03-20 05:06:00,15.3,-8.1,0.00,West,280,0.0,0.0,34,0.00,,---,0.00,VWS V14.00,2013-03-20 11:06:00,
2013-03-20 05:08:00,15.1,-8.2,0.00,West,279,0.0,0.0,34,0.00,,---,0.00,VWS V14.00,2013-03-20 11:08:00,
2013-03-20 05:10:00,15.1,-8.2,0.00,West,280,0.0,0.0,34,0.00,,---,0.00,VWS V14.00,2013-03-20 11:10:00,
2013-03-20 05:11:00,15.1,-8.2,0.00,West,277,0.0,0.0,34,0.00,,---,0.00,VWS V14.00,2013-03-20 11:11:00,
2013-03-20 05:13:00,15.1,-8.2,0.00,West,280,0.0,0.0,34,0.00,,---,0.00,VWS V14.00,2013-03-20 11:13:00,
2013-03-20 05:16:00,15.1,-8.2,0.00,West,268,0.0,0.0,34,0.00,,---,0.00,VWS V14.00,2013-03-20 11:16:00,
2013-03-20 05:18:00,15.1,-8.2,0.00,West,275,0.0,0.0,34,0.00,,---,0.00,VWS V14.00,2013-03-20 11:18:00,
2013-03-20 05:21:00,15.3,-8.1,0.00,East,85,4.0,4.0,34,0.00,,---,0.00,VWS V14.00,2013-03-20 11:21:00,
2013-03-20 05:23:00,15.3,-8.1,0.00,ESE,104,0.0,0.0,34,0.00,,---,0.00,VWS V14.00,2013-03-20 11:23:00,
2013-03-20 05:26:00,15.3,-8.1,0.00,WNW,291,2.7,2.7,34,0.00,,---,0.00,VWS V14.00,2013-03-20 11:26:00,
2013-03-20 05:27:00,15.3,-8.1,0.00,WNW,293,0.0,0.0,34,0.00,,---,0.00,VWS V14.00,2013-03-20 11:27:00,
2013-03-20 05:29:00,15.3,-8.1,0.00,WNW,293,0.0,0.0,34,0.00,,---,0.00,VWS V14.00,2013-03-20 11:29:00,
2013-03-20 05:31:00,15.3,-8.1,0.00,WNW,293,0.0,0.0,34,0.00,,---,0.00,VWS V14.00,2013-03-20 11:31:00,
2013-03-20 05:32:00,15.3,-8.1,0.00,WNW,288,0.0,0.0,34,0.00,,---,0.00,VWS V14.00,2013-03-20 11:32:00,
2013-03-20 05:34:00,15.3,-8.1,0.00,WNW,293,0.0,0.0,34,0.00,,---,0.00,VWS V14.00,2013-03-20 11:34:00,
2013-03-20 05:36:00,15.3,-8.1,0.00,WNW,293,0.0,0.0,34,0.00,,---,0.00,VWS V14.00,2013-03-20 11:36:00,
2013-03-20 05:37:00,15.3,-8.1,0.00,WNW,284,0.0,0.0,34,0.00,,---,0.00,VWS V14.00,2013-03-20 11:37:00,
2013-03-20 05:39:00,15.3,-8.1,0.00,WNW,293,0.0,2.2,34,0.00,,---,0.00,VWS V14.00,2013-03-20 11:39:00,
2013-03-20 05:42:00,15.3,-8.1,0.00,WNW,293,0.0,0.0,34,0.00,,---,0.00,VWS V14.00,2013-03-20 11:42:00,
2013-03-20 05:44:00,15.3,-8.1,0.00,WNW,296,2.7,2.7,34,0.00,,---,0.00,VWS V14.00,2013-03-20 11:44:00,
2013-03-20 05:47:00,15.3,-8.1,0.00,WNW,295,0.0,0.0,34,0.00,,---,0.00,VWS V14.00,2013-03-20 11:47:00,
2013-03-20 05:49:00,15.3,-8.1,0.00,WNW,295,0.0,0.0,34,0.00,,---,0.00,VWS V14.00,2013-03-20 11:49:00,
2013-03-20 05:52:00,15.3,-8.1,0.00,WNW,295,0.0,0.0,34,0.00,,---,0.00,VWS V14.00,2013-03-20 11:52:00,
2013-03-20 05:53:00,15.3,-8.1,0.00,WNW,296,0.0,0.0,34,0.00,,---,0.00,VWS V14.00,2013-03-20 11:53:00,
2013-03-20 05:54:00,15.3,-8.1,0.00,WNW,296,0.0,0.0,34,0.00,,---,0.00,VWS V14.00,2013-03-20 11:54:00,
2013-03-20 05:57:00,15.4,-7.9,0.00,WNW,295,0.0,0.0,34,0.00,,---,0.00,VWS V14.00,2013-03-20 11:57:00,
2013-03-20 05:58:00,15.4,-7.9,0.00,WNW,295,0.0,0.0,34,0.00,,---,0.00,VWS V14.00,2013-03-20 11:58:00,
2013-03-20 05:59:00,15.4,-7.9,0.00,WNW,295,0.0,0.0,34,0.00,,---,0.00,VWS V14.00,2013-03-20 11:59:00,
2013-03-20 06:02:00,15.4,-7.9,0.00,WNW,296,0.0,0.0,34,0.00,,---,0.00,VWS V14.00,2013-03-20 12:02:00,
2013-03-20 06:03:00,15.4,-7.9,0.00,WNW,296,0.0,0.0,34,0.00,,---,0.00,VWS V14.00,2013-03-20 12:03:00,
2013-03-20 06:04:00,15.4,-7.9,0.00,WNW,295,0.0,0.0,34,0.00,,---,0.00,VWS V14.00,2013-03-20 12:04:00,
2013-03-20 06:07:00,15.6,-7.8,0.00,WNW,296,0.0,0.0,34,0.00,,---,0.00,VWS V14.00,2013-03-20 12:07:00,
2013-03-20 06:08:00,15.6,-7.8,0.00,WNW,296,0.0,0.0,34,0.00,,---,0.00,VWS V14.00,2013-03-20 12:08:00,
2013-03-20 06:09:00,15.6,-7.8,0.00,WNW,295,0.0,0.0,34,0.00,,---,0.00,VWS V14.00,2013-03-20 12:09:00,
2013-03-20 06:13:00,15.6,-7.8,0.00,WNW,295,0.0,0.0,34,0.00,,---,0.00,VWS V14.00,2013-03-20 12:13:00,
2013-03-20 06:15:00,15.6,-7.8,0.00,WNW,295,0.0,0.0,34,0.00,,---,0.00,VWS V14.00,2013-03-20 12:15:00,
2013-03-20 06:18:00,15.8,-7.6,0.00,WNW,295,0.0,0.0,34,0.00,,---,0.00,VWS V14.00,2013-03-20 12:18:00,
2013-03-20 06:20:00,15.8,-7.6,0.00,WNW,295,0.0,0.0,34,0.00,,---,0.00,VWS V14.00,2013-03-20 12:20:00,
2013-03-20 06:23:00,15.8,-7.6,0.00,WNW,296,0.0,0.0,34,0.00,,---,0.00,VWS V14.00,2013-03-20 12:23:00,
2013-03-20 06:24:00,15.8,-7.6,0.00,WNW,296,0.0,0.0,34,0.00,,---,0.00,VWS V14.00,2013-03-20 12:24:00,
2013-03-20 06:25:00,15.8,-7.6,0.00,WNW,296,0.0,0.0,34,0.00,,---,0.00,VWS V14.00,2013-03-20 12:25:00,
2013-03-20 06:28:00,15.8,-7.6,0.00,WNW,295,0.0,0.0,34,0.00,,---,0.00,VWS V14.00,2013-03-20 12:28:00,
2013-03-20 06:29:00,15.8,-7.6,0.00,WNW,295,0.0,0.0,34,0.00,,---,0.00,VWS V14.00,2013-03-20 12:29:00,
2013-03-20 06:30:00,15.8,-7.6,0.00,West,276,0.0,0.0,34,0.00,,---,0.00,VWS V14.00,2013-03-20 12:30:00,
2013-03-20 06:33:00,15.8,-7.6,0.00,West,268,0.0,0.0,34,0.00,,---,0.00,VWS V14.00,2013-03-20 12:33:00,
2013-03-20 06:34:00,15.8,-7.6,0.00,West,276,0.0,0.0,34,0.00,,---,0.00,VWS V14.00,2013-03-20 12:34:00,
2013-03-20 06:35:00,15.8,-7.6,0.00,WNW,284,0.0,0.0,34,0.00,,---,0.00,VWS V14.00,2013-03-20 12:35:00,
2013-03-20 06:38:00,15.8,-7.6,0.00,WNW,284,0.0,0.0,34,0.00,,---,0.00,VWS V14.00,2013-03-20 12:38:00,
2013-03-20 06:39:00,15.8,-7.6,0.00,WNW,284,0.0,0.0,34,0.00,,---,0.00,VWS V14.00,2013-03-20 12:39:00,
2013-03-20 06:41:00,15.8,-7.6,0.00,WNW,283,0.0,0.0,34,0.00,,---,0.00,VWS V14.00,2013-03-20 12:41:00,
2013-03-20 06:43:00,15.8,-7.6,0.00,WNW,284,0.0,0.0,34,0.00,,---,0.00,VWS V14.00,2013-03-20 12:43:00,
2013-03-20 06:44:00,15.8,-7.6,0.00,WNW,284,0.0,0.0,34,0.00,,---,0.00,VWS V14.00,2013-03-20 12:44:00,
2013-03-20 06:46:00,15.8,-7.6,0.00,WNW,295,3.6,3.6,34,0.00,,---,0.00,VWS V14.00,2013-03-20 12:46:00,
2013-03-20 06:48:00,16.0,-7.4,0.00,WNW,303,0.0,0.0,34,0.00,,---,0.00,VWS V14.00,2013-03-20 12:48:00,
2013-03-20 06:49:00,16.0,-7.4,0.00,WNW,303,0.0,0.0,34,0.00,,---,0.00,VWS V14.00,2013-03-20 12:49:00,
2013-03-20 06:51:00,16.0,-7.4,0.00,WNW,300,0.0,0.0,34,0.00,,---,0.00,VWS V14.00,2013-03-20 12:51:00,
2013-03-20 06:53:00,16.0,-7.4,0.00,WNW,295,0.0,0.0,34,0.00,,---,0.00,VWS V14.00,2013-03-20 12:53:00,
2013-03-20 06:54:00,16.0,-7.4,0.00,WNW,296,0.0,0.0,34,0.00,,---,0.00,VWS V14.00,2013-03-20 12:54:00,
2013-03-20 06:56:00,16.0,-7.4,0.00,WNW,297,0.0,0.0,34,0.00,,---,0.00,VWS V14.00,2013-03-20 12:56:00,
2013-03-20 06:58:00,16.0,-7.4,0.00,WNW,297,0.0,0.0,34,0.00,,---,0.00,VWS V14.00,2013-03-20 12:58:00,
2013-03-20 07:00:00,16.0,-7.4,0.00,WNW,288,0.0,0.0,34,0.00,,---,0.00,VWS V14.00,2013-03-20 13:00:00,
2013-03-20 07:02:00,16.0,-7.4,0.00,WNW,297,0.0,0.0,34,0.00,,---,0.00,VWS V14.00,2013-03-20 13:02:00,
2013-03-20 07:03:00,16.0,-7.4,0.00,WNW,286,0.0,0.0,34,0.00,,---,0.00,VWS V14.00,2013-03-20 13:03:00,
2013-03-20 07:05:00,16.2,-7.3,0.00,WNW,298,0.0,0.0,34,0.00,,---,0.00,VWS V14.00,2013-03-20 13:05:00,
2013-03-20 07:07:00,16.2,-7.3,0.00,WNW,290,0.0,0.0,34,0.00,,---,0.00,VWS V14.00,2013-03-20 13:07:00,
2013-03-20 07:08:00,16.2,-7.3,0.00,WNW,294,0.0,0.0,34,0.00,,---,0.00,VWS V14.00,2013-03-20 13:08:00,
2013-03-20 07:10:00,16.2,-7.3,0.00,WNW,297,0.0,0.0,34,0.00,,---,0.00,VWS V14.00,2013-03-20 13:10:00,
2013-03-20 07:12:00,16.2,-7.3,0.00,WNW,293,3.1,3.1,34,0.00,,---,0.00,VWS V14.00,2013-03-20 13:12:00,
2013-03-20 07:13:00,16.2,-7.3,0.00,WNW,297,0.0,0.0,34,0.00,,---,0.00,VWS V14.00,2013-03-20 13:13:00,
2013-03-20 07:15:00,16.2,-7.3,0.00,WNW,298,0.0,0.0,34,0.00,,---,0.00,VWS V14.00,2013-03-20 13:15:00,
2013-03-20 07:17:00,16.2,-7.3,0.00,WNW,292,0.0,0.0,34,0.00,,---,0.00,VWS V14.00,2013-03-20 13:17:00,
2013-03-20 07:18:00,16.2,-7.3,0.00,WNW,286,3.6,3.6,34,0.00,,---,0.00,VWS V14.00,2013-03-20 13:18:00,
2013-03-20 07:19:00,16.2,-7.3,0.00,WNW,290,2.2,3.6,34,0.00,,---,0.00,VWS V14.00,2013-03-20 13:19:00,
2013-03-20 07:20:00,16.3,-7.1,0.00,West,279,0.0,0.0,34,0.00,,---,0.00,VWS V14.00,2013-03-20 13:20:00,
2013-03-20 07:22:00,16.3,-7.1,0.00,WNW,285,3.6,3.6,34,0.00,,---,0.00,VWS V14.00,2013-03-20 13:22:00,
2013-03-20 07:23:00,16.3,-7.1,0.00,WNW,297,0.0,3.1,34,0.00,,---,0.00,VWS V14.00,2013-03-20 13:23:00,
2013-03-20 07:24:00,16.3,-7.1,0.00,WNW,298,0.0,3.1,34,0.00,,---,0.00,VWS V14.00,2013-03-20 13:24:00,
2013-03-20 07:26:00,16.3,-7.1,0.00,WNW,297,0.0,0.0,34,0.00,,---,0.00,VWS V14.00,2013-03-20 13:26:00,
2013-03-20 07:28:00,16.5,-6.9,0.00,WNW,298,0.0,0.0,34,0.00,,---,0.00,VWS V14.00,2013-03-20 13:28:00,
2013-03-20 07:29:00,16.5,-6.9,0.00,WNW,297,0.0,0.0,34,0.00,,---,0.00,VWS V14.00,2013-03-20 13:29:00,
2013-03-20 07:31:00,16.5,-6.9,0.00,WNW,297,0.0,0.0,34,0.00,,---,0.00,VWS V14.00,2013-03-20 13:31:00,
2013-03-20 07:33:00,16.5,-6.9,0.00,WNW,287,0.0,0.0,34,0.00,,---,0.00,VWS V14.00,2013-03-20 13:33:00,
2013-03-20 07:34:00,16.5,-6.9,0.00,WNW,297,0.0,0.0,34,0.00,,---,0.00,VWS V14.00,2013-03-20 13:34:00,
2013-03-20 07:36:00,16.5,-6.9,0.00,WNW,296,0.0,0.0,34,0.00,,---,0.00,VWS V14.00,2013-03-20 13:36:00,
2013-03-20 07:38:00,16.5,-6.9,0.00,WNW,295,0.0,0.0,34,0.00,,---,0.00,VWS V14.00,2013-03-20 13:38:00,
2013-03-20 07:39:00,16.5,-6.9,0.00,WNW,297,0.0,0.0,34,0.00,,---,0.00,VWS V14.00,2013-03-20 13:39:00,
2013-03-20 07:42:00,16.5,-6.9,0.00,WNW,295,0.0,0.0,34,0.00,,---,0.00,VWS V14.00,2013-03-20 13:42:00,
2013-03-20 07:43:00,16.5,-6.9,0.00,WNW,287,0.0,0.0,34,0.00,,---,0.00,VWS V14.00,2013-03-20 13:43:00,
2013-03-20 07:44:00,16.5,-6.9,0.00,WNW,295,0.0,0.0,34,0.00,,---,0.00,VWS V14.00,2013-03-20 13:44:00,
2013-03-20 07:47:00,16.7,-6.8,0.00,WNW,292,0.0,0.0,34,0.00,,---,0.00,VWS V14.00,2013-03-20 13:47:00,
2013-03-20 07:48:00,16.7,-6.8,0.00,WNW,298,0.0,0.0,34,0.00,,---,0.00,VWS V14.00,2013-03-20 13:48:00,
2013-03-20 07:49:00,16.7,-6.8,0.00,WNW,297,0.0,0.0,34,0.00,,---,0.00,VWS V14.00,2013-03-20 13:49:00,
2013-03-20 07:52:00,16.7,-6.8,0.00,WNW,298,0.0,0.0,34,0.00,,---,0.00,VWS V14.00,2013-03-20 13:52:00,
2013-03-20 07:53:00,16.7,-6.8,0.00,WNW,298,0.0,0.0,34,0.00,,---,0.00,VWS V14.00,2013-03-20 13:53:00,
2013-03-20 07:54:00,16.7,-6.8,0.00,WNW,298,0.0,0.0,34,0.00,,---,0.00,VWS V14.00,2013-03-20 13:54:00,
2013-03-20 07:58:00,16.7,-6.8,0.00,WNW,298,0.0,0.0,34,0.00,,---,0.00,VWS V14.00,2013-03-20 13:58:00,
2013-03-20 07:59:00,16.9,-6.6,0.00,WNW,295,0.0,0.0,34,0.00,,---,0.00,VWS V14.00,2013-03-20 13:59:00,
2013-03-20 08:03:00,16.9,-6.6,0.00,WSW,253,0.0,0.0,34,0.00,,---,0.00,VWS V14.00,2013-03-20 14:03:00,
2013-03-20 08:04:00,16.9,-6.6,0.00,WSW,252,0.0,0.0,34,0.00,,---,0.00,VWS V14.00,2013-03-20 14:04:00,
2013-03-20 08:08:00,17.1,-6.5,0.00,SSE,155,0.0,0.0,34,0.00,,---,0.00,VWS V14.00,2013-03-20 14:08:00,
2013-03-20 08:09:00,17.1,-6.5,0.00,SSE,152,0.0,0.0,34,0.00,,---,0.00,VWS V14.00,2013-03-20 14:09:00,
2013-03-20 08:13:00,17.1,-6.5,0.00,West,279,0.0,0.0,34,0.00,,---,0.00,VWS V14.00,2013-03-20 14:13:00,
2013-03-20 08:14:00,17.1,-6.5,0.00,WNW,286,0.0,0.0,34,0.00,,---,0.00,VWS V14.00,2013-03-20 14:14:00,
2013-03-20 08:18:00,17.2,-6.3,0.00,WNW,290,2.7,2.7,34,0.00,,---,0.00,VWS V14.00,2013-03-20 14:18:00,
2013-03-20 08:19:00,17.2,-6.3,0.00,WNW,295,2.7,4.5,34,0.00,,---,0.00,VWS V14.00,2013-03-20 14:19:00,
2013-03-20 08:23:00,17.6,-6.0,0.00,WNW,297,0.0,0.0,34,0.00,,---,0.00,VWS V14.00,2013-03-20 14:23:00,
2013-03-20 08:24:00,17.6,-6.0,0.00,WNW,297,0.0,0.0,34,0.00,,---,0.00,VWS V14.00,2013-03-20 14:24:00,
2013-03-20 08:28:00,17.8,-6.4,0.00,WNW,292,0.0,0.0,33,0.00,,---,0.00,VWS V14.00,2013-03-20 14:28:00,
2013-03-20 08:29:00,17.8,-6.4,0.00,WNW,297,0.0,0.0,33,0.00,,---,0.00,VWS V14.00,2013-03-20 14:29:00,
2013-03-20 08:34:00,18.0,-6.3,0.00,WNW,297,0.0,0.0,33,0.00,,---,0.00,VWS V14.00,2013-03-20 14:34:00,
2013-03-20 08:35:00,18.0,-6.3,0.00,WNW,298,0.0,0.0,33,0.00,,---,0.00,VWS V14.00,2013-03-20 14:35:00,
2013-03-20 08:39:00,18.1,-6.1,0.00,WNW,297,0.0,0.0,33,0.00,,---,0.00,VWS V14.00,2013-03-20 14:39:00,
2013-03-20 08:40:00,18.3,-6.0,0.00,WNW,297,0.0,0.0,33,0.00,,---,0.00,VWS V14.00,2013-03-20 14:40:00,
2013-03-20 08:44:00,18.7,-5.0,0.00,WNW,301,3.1,3.6,34,0.00,,---,0.00,VWS V14.00,2013-03-20 14:44:00,
2013-03-20 08:45:00,18.9,-4.9,0.00,WNW,300,0.0,3.6,34,0.00,,---,0.00,VWS V14.00,2013-03-20 14:45:00,
2013-03-20 08:49:00,19.2,-4.5,0.00,WNW,302,0.0,0.0,34,0.00,,---,0.00,VWS V14.00,2013-03-20 14:49:00,
2013-03-20 08:50:00,19.4,-4.4,0.00,WNW,300,0.0,0.0,34,0.00,,---,0.00,VWS V14.00,2013-03-20 14:50:00,
2013-03-20 08:54:00,19.8,-4.1,0.00,WNW,295,0.0,0.0,34,0.00,,---,0.00,VWS V14.00,2013-03-20 14:54:00,
2013-03-20 08:55:00,19.9,-3.9,0.00,WNW,296,0.0,0.0,34,0.00,,---,0.00,VWS V14.00,2013-03-20 14:55:00,
2013-03-20 08:59:00,20.1,-3.7,0.00,WNW,288,0.0,0.0,34,0.00,,---,0.00,VWS V14.00,2013-03-20 14:59:00,
2013-03-20 09:00:00,20.3,-3.6,0.00,West,280,0.0,0.0,34,0.00,,---,0.00,VWS V14.00,2013-03-20 15:00:00,
2013-03-20 09:04:00,20.7,-3.3,0.00,WSW,240,0.0,0.0,34,0.00,,---,0.00,VWS V14.00,2013-03-20 15:04:00,
2013-03-20 09:05:00,20.8,-3.1,0.00,SW,236,0.0,0.0,34,0.00,,---,0.00,VWS V14.00,2013-03-20 15:05:00,
2013-03-20 09:09:00,21.2,-2.8,0.00,SSW,196,0.0,2.2,34,0.00,,---,0.00,VWS V14.00,2013-03-20 15:09:00,
2013-03-20 09:10:00,21.4,-2.6,0.00,West,262,0.0,0.0,34,0.00,,---,0.00,VWS V14.00,2013-03-20 15:10:00,
2013-03-20 09:15:00,22.3,-1.8,0.00,WNW,297,4.0,4.0,34,0.00,,---,0.00,VWS V14.00,2013-03-20 15:15:00,
2013-03-20 09:20:00,23.4,-0.9,0.00,SE,143,2.2,3.1,34,0.00,,---,0.00,VWS V14.00,2013-03-20 15:20:00,
2013-03-20 09:21:00,23.4,-0.9,0.00,SSW,199,0.0,0.0,34,0.00,,---,0.00,VWS V14.00,2013-03-20 15:21:00,
2013-03-20 09:25:00,24.1,-0.2,0.00,SE,138,0.0,0.0,34,0.00,,---,0.00,VWS V14.00,2013-03-20 15:25:00,
2013-03-20 09:26:00,24.1,-0.2,0.00,ESE,106,4.9,4.9,34,0.00,,---,0.00,VWS V14.00,2013-03-20 15:26:00,
2013-03-20 09:27:00,24.3,-0.1,0.00,ESE,104,3.1,4.0,34,0.00,,---,0.00,VWS V14.00,2013-03-20 15:27:00,
2013-03-20 09:30:00,24.6,0.3,0.00,SE,137,3.6,3.6,34,0.00,,---,0.00,VWS V14.00,2013-03-20 15:30:00,
2013-03-20 09:31:00,24.8,0.4,0.00,ENE,76,3.1,3.6,34,0.00,,---,0.00,VWS V14.00,2013-03-20 15:31:00,
2013-03-20 09:32:00,25.0,0.6,0.00,NE,35,7.6,7.6,34,0.00,,---,0.00,VWS V14.00,2013-03-20 15:32:00,
2013-03-20 09:35:00,25.3,0.9,0.00,NNW,331,0.0,0.0,34,0.00,,---,0.00,VWS V14.00,2013-03-20 15:35:00,
2013-03-20 09:36:00,25.5,1.1,0.00,East,97,2.7,2.7,34,0.00,,---,0.00,VWS V14.00,2013-03-20 15:36:00,
2013-03-20 09:37:00,25.7,1.2,0.00,ENE,75,4.0,4.0,34,0.00,,---,0.00,VWS V14.00,2013-03-20 15:37:00,
2013-03-20 09:40:00,26.4,1.9,0.00,East,101,4.0,4.0,34,0.00,,---,0.00,VWS V14.00,2013-03-20 15:40:00,
2013-03-20 09:41:00,26.4,1.9,0.00,NNE,31,2.7,4.0,34,0.00,,---,0.00,VWS V14.00,2013-03-20 15:41:00,
2013-03-20 09:42:00,26.6,2.0,0.00,ESE,118,8.3,8.7,34,0.00,,---,0.00,VWS V14.00,2013-03-20 15:42:00,
2013-03-20 09:45:00,27.1,2.5,0.00,ENE,69,0.0,0.0,34,0.00,,---,0.00,VWS V14.00,2013-03-20 15:45:00,
2013-03-20 09:47:00,27.3,2.7,0.00,East,94,3.6,3.6,34,0.00,,---,0.00,VWS V14.00,2013-03-20 15:47:00,
2013-03-20 09:50:00,27.9,3.2,0.00,North,8,3.1,3.1,34,0.00,,---,0.00,VWS V14.00,2013-03-20 15:50:00,
2013-03-20 09:51:00,27.9,3.2,0.00,East,89,5.8,5.8,34,0.00,,---,0.00,VWS V14.00,2013-03-20 15:51:00,
2013-03-20 09:52:00,28.0,3.3,0.00,ESE,110,4.9,5.8,34,0.00,,---,0.00,VWS V14.00,2013-03-20 15:52:00,
2013-03-20 09:55:00,28.8,3.9,0.00,South,185,0.0,4.0,34,0.00,,---,0.00,VWS V14.00,2013-03-20 15:55:00,
2013-03-20 09:56:00,28.8,3.9,0.00,SSE,154,0.0,4.0,34,0.00,,---,0.00,VWS V14.00,2013-03-20 15:56:00,
2013-03-20 09:57:00,28.9,4.1,0.00,SW,219,0.0,0.0,34,0.00,,---,0.00,VWS V14.00,2013-03-20 15:57:00,
2013-03-20 09:58:00,28.9,4.1,0.00,SSE,159,0.0,0.0,34,0.00,,---,0.00,VWS V14.00,2013-03-20 15:58:00,
2013-03-20 10:00:00,29.3,4.4,0.00,East,80,2.7,4.0,34,0.00,,---,0.00,VWS V14.00,2013-03-20 16:00:00,
2013-03-20 10:01:00,29.5,4.6,0.00,East,88,4.5,4.5,34,0.00,,---,0.00,VWS V14.00,2013-03-20 16:01:00,
2013-03-20 10:02:00,29.7,4.7,0.00,East,81,3.1,3.1,34,0.00,,---,0.00,VWS V14.00,2013-03-20 16:02:00,
2013-03-20 10:03:00,29.7,4.7,0.00,NW,322,3.6,3.6,34,0.00,,---,0.00,VWS V14.00,2013-03-20 16:03:00,
2013-03-20 10:05:00,30.2,5.2,0.00,East,92,4.9,4.9,34,0.00,,---,0.00,VWS V14.00,2013-03-20 16:05:00,
2013-03-20 10:06:00,30.4,5.4,0.00,ENE,78,5.4,6.3,34,0.00,,---,0.00,VWS V14.00,2013-03-20 16:06:00,
2013-03-20 10:07:00,30.4,5.4,0.00,NW,321,0.0,3.6,34,0.00,,---,0.00,VWS V14.00,2013-03-20 16:07:00,
2013-03-20 10:08:00,30.7,5.7,0.00,ESE,121,4.0,8.1,34,0.00,,---,0.00,VWS V14.00,2013-03-20 16:08:00,
2013-03-20 10:10:00,30.9,5.9,0.00,East,100,3.1,5.8,34,0.00,,---,0.00,VWS V14.00,2013-03-20 16:10:00,
2013-03-20 10:12:00,31.1,6.0,0.00,ENE,58,3.1,5.4,34,0.00,,---,0.00,VWS V14.00,2013-03-20 16:12:00,
2013-03-20 10:13:00,31.5,6.3,0.00,WNW,290,4.0,4.0,34,0.00,,---,0.00,VWS V14.00,2013-03-20 16:13:00,
2013-03-20 10:16:00,32.0,6.8,0.00,SSE,148,8.3,8.7,34,0.00,,---,0.00,VWS V14.00,2013-03-20 16:16:00,
2013-03-20 10:17:00,32.2,7.0,0.00,ESE,122,3.6,7.6,34,0.00,,---,0.00,VWS V14.00,2013-03-20 16:17:00,
2013-03-20 10:19:00,32.4,7.1,0.00,ENE,62,4.0,7.2,34,0.00,,---,0.00,VWS V14.00,2013-03-20 16:19:00,
2013-03-20 10:22:00,32.7,6.8,0.00,NE,53,4.9,5.4,33,0.00,,---,0.00,VWS V14.00,2013-03-20 16:22:00,
2013-03-20 10:23:00,32.9,7.0,0.00,SE,128,8.7,8.7,33,0.00,,---,0.00,VWS V14.00,2013-03-20 16:23:00,
2013-03-20 10:24:00,32.9,7.0,0.00,ESE,110,8.1,8.1,33,0.00,,---,0.00,VWS V14.00,2013-03-20 16:24:00,
2013-03-20 10:27:00,33.4,8.1,0.00,East,96,4.9,4.9,34,0.00,,---,0.00,VWS V14.00,2013-03-20 16:27:00,
2013-03-20 10:28:00,33.4,8.1,0.00,ESE,108,2.2,2.2,34,0.00,,---,0.00,VWS V14.00,2013-03-20 16:28:00,
2013-03-20 10:29:00,33.6,8.3,0.00,SW,231,0.0,0.0,34,0.00,,---,0.00,VWS V14.00,2013-03-20 16:29:00,
2013-03-20 10:33:00,34.0,7.9,0.00,ESE,122,0.0,0.0,33,0.00,,---,0.00,VWS V14.00,2013-03-20 16:33:00,
2013-03-20 10:34:00,34.2,8.1,0.00,ESE,120,0.0,0.0,33,0.00,,---,0.00,VWS V14.00,2013-03-20 16:34:00,
2013-03-20 10:38:00,34.5,8.4,0.00,SSW,206,0.0,0.0,33,0.00,,---,0.00,VWS V14.00,2013-03-20 16:38:00,
2013-03-20 10:39:00,34.7,8.6,0.00,South,190,0.0,0.0,33,0.00,,---,0.00,VWS V14.00,2013-03-20 16:39:00,
2013-03-20 10:43:00,35.2,9.0,0.00,SE,137,3.6,4.0,33,0.00,,---,0.00,VWS V14.00,2013-03-20 16:43:00,
2013-03-20 10:44:00,35.4,9.2,0.00,SSE,152,0.0,0.0,33,0.00,,---,0.00,VWS V14.00,2013-03-20 16:44:00,
2013-03-20 10:48:00,35.8,8.8,0.00,WNW,286,3.1,3.1,32,0.00,,---,0.00,VWS V14.00,2013-03-20 16:48:00,
2013-03-20 10:49:00,36.1,9.1,0.00,SE,127,0.0,3.1,32,0.00,,---,0.00,VWS V14.00,2013-03-20 16:49:00,
2013-03-20 10:53:00,36.5,9.5,0.00,WSW,240,0.0,0.0,32,0.00,,---,0.00,VWS V14.00,2013-03-20 16:53:00,
2013-03-20 10:55:00,36.7,9.6,0.00,West,270,2.2,3.6,32,0.00,,---,0.00,VWS V14.00,2013-03-20 16:55:00,
2013-03-20 10:58:00,36.9,9.8,0.00,ESE,114,3.6,4.0,32,0.00,,---,0.00,VWS V14.00,2013-03-20 16:58:00,
2013-03-20 10:59:00,36.9,9.8,0.00,SE,146,5.8,5.8,32,0.00,,---,0.00,VWS V14.00,2013-03-20 16:59:00,
2013-03-20 11:00:00,36.9,9.8,0.00,ENE,74,4.9,6.3,32,0.00,,---,0.00,VWS V14.00,2013-03-20 17:00:00,
2013-03-20 11:04:00,37.4,10.2,0.00,WNW,296,0.0,3.1,32,0.00,,---,0.00,VWS V14.00,2013-03-20 17:04:00,
2013-03-20 11:05:00,37.4,10.2,0.00,ESE,111,4.9,5.8,32,0.00,,---,0.00,VWS V14.00,2013-03-20 17:05:00,
2013-03-20 11:09:00,37.8,10.6,0.00,ESE,119,4.0,5.4,32,0.00,,---,0.00,VWS V14.00,2013-03-20 17:09:00,
2013-03-20 11:10:00,37.9,10.7,0.00,South,182,2.7,3.6,32,0.00,,---,0.00,VWS V14.00,2013-03-20 17:10:00,
2013-03-20 11:14:00,38.3,11.0,0.00,ESE,104,3.6,3.6,32,0.00,,---,0.00,VWS V14.00,2013-03-20 17:14:00,
2013-03-20 11:15:00,38.5,10.5,0.00,NW,315,2.7,2.7,31,0.00,,---,0.00,VWS V14.00,2013-03-20 17:15:00,
2013-03-20 11:19:00,38.8,10.8,0.00,SSW,213,0.0,4.0,31,0.00,,---,0.00,VWS V14.00,2013-03-20 17:19:00,
2013-03-20 11:20:00,39.0,11.0,0.00,SW,217,3.1,3.1,31,0.00,,---,0.00,VWS V14.00,2013-03-20 17:20:00,
2013-03-20 11:24:00,39.4,11.3,0.00,SW,223,2.2,3.6,31,0.00,,---,0.00,VWS V14.00,2013-03-20 17:24:00,
2013-03-20 11:25:00,39.6,11.4,0.00,East,99,4.0,4.0,31,0.00,,---,0.00,VWS V14.00,2013-03-20 17:25:00,
2013-03-20 11:29:00,39.7,11.6,0.00,SE,140,5.8,5.8,31,0.00,,---,0.00,VWS V14.00,2013-03-20 17:29:00,
2013-03-20 11:30:00,39.7,11.6,0.00,ESE,107,3.6,3.6,31,0.00,,---,0.00,VWS V14.00,2013-03-20 17:30:00,
2013-03-20 11:34:00,40.1,11.9,0.00,WSW,238,3.1,3.1,31,0.00,,---,0.00,VWS V14.00,2013-03-20 17:34:00,
2013-03-20 11:35:00,40.1,11.9,0.00,SE,140,3.1,3.1,31,0.00,,---,0.00,VWS V14.00,2013-03-20 17:35:00,
2013-03-20 11:39:00,40.5,12.2,0.00,ENE,75,2.7,5.8,31,0.00,,---,0.00,VWS V14.00,2013-03-20 17:39:00,
2013-03-20 11:40:00,40.5,12.2,0.00,ESE,104,3.1,3.1,31,0.00,,---,0.00,VWS V14.00,2013-03-20 17:40:00,
2013-03-20 11:44:00,40.6,12.4,0.00,ESE,111,5.4,5.4,31,0.00,,---,0.00,VWS V14.00,2013-03-20 17:44:00,
2013-03-20 11:45:00,40.6,12.4,0.00,SE,137,8.3,8.3,31,0.00,,---,0.00,VWS V14.00,2013-03-20 17:45:00,
2013-03-20 11:49:00,41.0,12.0,0.00,SE,135,3.6,7.6,30,0.00,,---,0.00,VWS V14.00,2013-03-20 17:49:00,
2013-03-20 11:50:00,41.0,12.0,0.00,SE,138,4.0,4.5,30,0.00,,---,0.00,VWS V14.00,2013-03-20 17:50:00,
2013-03-20 11:51:00,41.0,12.0,0.00,SE,128,3.1,4.5,30,0.00,,---,0.00,VWS V14.00,2013-03-20 17:51:00,
2013-03-20 11:54:00,41.2,12.1,0.00,ESE,118,4.9,8.3,30,0.00,,---,0.00,VWS V14.00,2013-03-20 17:54:00,
2013-03-20 11:56:00,41.4,12.3,0.00,SE,135,8.7,15.4,30,0.00,,---,0.00,VWS V14.00,2013-03-20 17:56:00,
2013-03-20 11:59:00,41.5,12.4,0.00,SW,235,2.7,4.9,30,0.00,,---,0.00,VWS V14.00,2013-03-20 17:59:00,
2013-03-20 12:01:00,41.5,12.4,0.00,East,81,4.0,5.8,30,0.00,,---,0.00,VWS V14.00,2013-03-20 18:01:00,
2013-03-20 12:04:00,41.7,12.6,0.00,SSW,198,2.7,3.6,30,0.00,,---,0.00,VWS V14.00,2013-03-20 18:04:00,
2013-03-20 12:06:00,41.7,12.6,0.00,ESE,114,6.3,6.3,30,0.00,,---,0.00,VWS V14.00,2013-03-20 18:06:00,
2013-03-20 12:09:00,41.9,12.7,0.00,East,95,4.0,7.2,30,0.00,,---,0.00,VWS V14.00,2013-03-20 18:09:00,
2013-03-20 12:11:00,41.9,12.7,0.00,SE,129,4.0,4.0,30,0.00,,---,0.00,VWS V14.00,2013-03-20 18:11:00,
2013-03-20 12:14:00,42.1,12.9,0.00,ESE,103,5.8,7.6,30,0.00,,---,0.00,VWS V14.00,2013-03-20 18:14:00,
2013-03-20 12:16:00,42.3,13.1,0.00,East,92,5.4,5.4,30,0.00,,---,0.00,VWS V14.00,2013-03-20 18:16:00,
2013-03-20 12:17:00,42.3,13.1,0.00,NE,53,3.1,5.4,30,0.00,,---,0.00,VWS V14.00,2013-03-20 18:17:00,
2013-03-20 12:19:00,42.4,13.2,0.00,SE,124,7.6,7.6,30,0.00,,---,0.00,VWS V14.00,2013-03-20 18:19:00,
2013-03-20 12:22:00,42.4,13.2,0.00,SE,135,4.9,5.4,30,0.00,,---,0.00,VWS V14.00,2013-03-20 18:22:00,
2013-03-20 12:24:00,42.6,13.4,0.00,East,94,5.8,8.7,30,0.00,,---,0.00,VWS V14.00,2013-03-20 18:24:00,
2013-03-20 12:27:00,42.8,13.5,0.00,SE,133,4.0,8.7,30,0.00,,---,0.00,VWS V14.00,2013-03-20 18:27:00,
2013-03-20 12:29:00,43.0,13.7,0.00,East,93,2.7,5.8,30,0.00,,---,0.00,VWS V14.00,2013-03-20 18:29:00,
2013-03-20 12:32:00,43.0,13.7,0.00,South,191,3.6,8.3,30,0.00,,---,0.00,VWS V14.00,2013-03-20 18:32:00,
2013-03-20 12:34:00,43.2,13.8,0.00,East,100,3.6,7.2,30,0.00,,---,0.00,VWS V14.00,2013-03-20 18:34:00,
2013-03-20 12:35:00,43.2,13.8,0.00,East,100,3.6,7.2,30,0.00,,---,0.00,VWS V14.00,2013-03-20 18:35:00,
2013-03-20 12:37:00,43.3,14.0,0.00,South,175,5.4,5.8,30,0.00,,---,0.00,VWS V14.00,2013-03-20 18:37:00,
2013-03-20 12:39:00,43.5,14.2,0.00,North,2,8.7,8.7,30,0.00,,---,0.00,VWS V14.00,2013-03-20 18:39:00,
2013-03-20 12:40:00,43.5,14.2,0.00,North,2,8.7,8.7,30,0.00,,---,0.00,VWS V14.00,2013-03-20 18:40:00,
2013-03-20 12:42:00,43.7,14.3,0.00,ESE,109,10.5,10.5,30,0.00,,---,0.00,VWS V14.00,2013-03-20 18:42:00,
2013-03-20 12:43:00,43.7,14.3,0.00,SE,131,7.6,10.5,30,0.00,,---,0.00,VWS V14.00,2013-03-20 18:43:00,
2013-03-20 12:45:00,43.7,14.3,0.00,ENE,76,5.8,8.3,30,0.00,,---,0.00,VWS V14.00,2013-03-20 18:45:00,
2013-03-20 12:47:00,43.9,14.5,0.00,SE,142,6.3,6.3,30,0.00,,---,0.00,VWS V14.00,2013-03-20 18:47:00,
2013-03-20 12:48:00,44.1,14.6,0.00,SSE,151,6.3,11.0,30,0.00,,---,0.00,VWS V14.00,2013-03-20 18:48:00,
2013-03-20 12:50:00,44.1,14.6,0.00,ESE,113,6.3,9.6,30,0.00,,---,0.00,VWS V14.00,2013-03-20 18:50:00,
2013-03-20 12:53:00,44.2,14.8,0.00,ESE,118,7.6,7.6,30,0.00,,---,0.00,VWS V14.00,2013-03-20 18:53:00,
2013-03-20 12:55:00,44.2,14.8,0.00,SE,128,6.3,12.3,30,0.00,,---,0.00,VWS V14.00,2013-03-20 18:55:00,
2013-03-20 12:58:00,44.4,14.2,0.00,SSE,152,8.1,10.5,29,0.00,,---,0.00,VWS V14.00,2013-03-20 18:58:00,
2013-03-20 13:00:00,44.6,14.3,0.00,ESE,119,6.3,8.3,29,0.00,,---,0.00,VWS V14.00,2013-03-20 19:00:00,
2013-03-20 13:03:00,44.6,14.3,0.00,ESE,114,11.0,11.0,29,0.00,,---,0.00,VWS V14.00,2013-03-20 19:03:00,
2013-03-20 13:05:00,44.8,14.5,0.00,East,95,6.3,6.3,29,0.00,,---,0.00,VWS V14.00,2013-03-20 19:05:00,
2013-03-20 13:08:00,45.0,14.6,0.00,ESE,120,6.3,11.0,29,0.00,,---,0.00,VWS V14.00,2013-03-20 19:08:00,
2013-03-20 13:10:00,45.1,14.8,0.00,East,85,8.1,8.1,29,0.00,,---,0.00,VWS V14.00,2013-03-20 19:10:00,
2013-03-20 13:13:00,45.1,14.8,0.00,ESE,105,12.8,12.8,29,0.00,,---,0.00,VWS V14.00,2013-03-20 19:13:00,
2013-03-20 13:15:00,45.3,14.9,0.00,ESE,117,6.3,10.5,29,0.00,,---,0.00,VWS V14.00,2013-03-20 19:15:00,
2013-03-20 13:18:00,45.3,14.9,0.00,ENE,63,6.3,6.3,29,0.00,,---,0.00,VWS V14.00,2013-03-20 19:18:00,
2013-03-20 13:19:00,45.3,14.9,0.00,East,99,6.3,7.6,29,0.00,,---,0.00,VWS V14.00,2013-03-20 19:19:00,
2013-03-20 13:20:00,45.3,14.9,0.00,ESE,121,4.0,5.4,29,0.00,,---,0.00,VWS V14.00,2013-03-20 19:20:00,
2013-03-20 13:23:00,45.5,15.1,0.00,ESE,108,6.3,6.3,29,0.00,,---,0.00,VWS V14.00,2013-03-20 19:23:00,
2013-03-20 13:24:00,45.5,15.1,0.00,ESE,116,3.1,8.7,29,0.00,,---,0.00,VWS V14.00,2013-03-20 19:24:00,
2013-03-20 13:25:00,45.7,15.3,0.00,East,93,11.4,11.4,29,0.00,,---,0.00,VWS V14.00,2013-03-20 19:25:00,
2013-03-20 13:28:00,45.9,15.4,0.00,East,96,4.9,7.6,29,0.00,,---,0.00,VWS V14.00,2013-03-20 19:28:00,
2013-03-20 13:29:00,45.9,15.4,0.00,East,93,6.3,8.1,29,0.00,,---,0.00,VWS V14.00,2013-03-20 19:29:00,
2013-03-20 13:30:00,45.9,15.4,0.00,ENE,72,8.7,8.7,29,0.00,,---,0.00,VWS V14.00,2013-03-20 19:30:00,
2013-03-20 13:31:00,45.9,15.4,0.00,East,94,3.6,8.7,29,0.00,,---,0.00,VWS V14.00,2013-03-20 19:31:00,
2013-03-20 13:33:00,45.9,15.4,0.00,ENE,77,5.4,6.7,29,0.00,,---,0.00,VWS V14.00,2013-03-20 19:33:00,
2013-03-20 13:34:00,46.0,15.6,0.00,East,97,9.6,9.6,29,0.00,,---,0.00,VWS V14.00,2013-03-20 19:34:00,
2013-03-20 13:36:00,46.0,15.6,0.00,East,88,7.6,13.2,29,0.00,,---,0.00,VWS V14.00,2013-03-20 19:36:00,
2013-03-20 13:38:00,46.0,15.6,0.00,East,92,5.4,6.3,29,0.00,,---,0.00,VWS V14.00,2013-03-20 19:38:00,
2013-03-20 13:39:00,46.0,15.6,0.00,East,100,5.8,8.3,29,0.00,,---,0.00,VWS V14.00,2013-03-20 19:39:00,
2013-03-20 13:41:00,46.2,15.7,0.00,ESE,103,8.3,8.3,29,0.00,,---,0.00,VWS V14.00,2013-03-20 19:41:00,
2013-03-20 13:43:00,46.2,15.7,0.00,ESE,122,3.6,8.7,29,0.00,,---,0.00,VWS V14.00,2013-03-20 19:43:00,
2013-03-20 13:44:00,46.2,15.7,0.00,ENE,62,8.3,8.3,29,0.00,,---,0.00,VWS V14.00,2013-03-20 19:44:00,
2013-03-20 13:46:00,46.2,15.7,0.00,ESE,110,8.3,8.3,29,0.00,,---,0.00,VWS V14.00,2013-03-20 19:46:00,
2013-03-20 13:48:00,46.4,15.9,0.00,ESE,120,5.4,12.8,29,0.00,,---,0.00,VWS V14.00,2013-03-20 19:48:00,
2013-03-20 13:49:00,46.4,15.9,0.00,SE,130,4.0,4.9,29,0.00,,---,0.00,VWS V14.00,2013-03-20 19:49:00,
2013-03-20 13:51:00,46.4,15.9,0.00,East,93,5.4,8.7,29,0.00,,---,0.00,VWS V14.00,2013-03-20 19:51:00,
2013-03-20 13:52:00,46.4,15.9,0.00,NE,46,6.7,8.1,29,0.00,,---,0.00,VWS V14.00,2013-03-20 19:52:00,
2013-03-20 13:53:00,46.4,15.9,0.00,ESE,103,10.5,10.5,29,0.00,,---,0.00,VWS V14.00,2013-03-20 19:53:00,
2013-03-20 13:54:00,46.4,15.9,0.00,ENE,62,4.9,7.6,29,0.00,,---,0.00,VWS V14.00,2013-03-20 19:54:00,
2013-03-20 13:56:00,46.4,15.9,0.00,ESE,104,4.0,8.3,29,0.00,,---,0.00,VWS V14.00,2013-03-20 19:56:00,
2013-03-20 13:57:00,46.4,15.9,0.00,East,91,8.3,8.3,29,0.00,,---,0.00,VWS V14.00,2013-03-20 19:57:00,
2013-03-20 13:58:00,46.4,15.9,0.00,East,89,8.1,11.0,29,0.00,,---,0.00,VWS V14.00,2013-03-20 19:58:00,
2013-03-20 13:59:00,46.4,15.9,0.00,ESE,123,10.1,10.1,29,0.00,,---,0.00,VWS V14.00,2013-03-20 19:59:00,
2013-03-20 14:01:00,46.4,15.9,0.00,East,86,8.3,8.3,29,0.00,,---,0.00,VWS V14.00,2013-03-20 20:01:00,
2013-03-20 14:02:00,46.4,15.9,0.00,ENE,63,8.7,8.7,29,0.00,,---,0.00,VWS V14.00,2013-03-20 20:02:00,
2013-03-20 14:03:00,46.6,16.0,0.00,SE,133,6.3,6.3,29,0.00,,---,0.00,VWS V14.00,2013-03-20 20:03:00,
2013-03-20 14:04:00,46.6,16.0,0.00,East,99,8.1,8.1,29,0.00,,---,0.00,VWS V14.00,2013-03-20 20:04:00,
2013-03-20 14:07:00,46.6,16.0,0.00,ENE,69,3.1,5.8,29,0.00,,---,0.00,VWS V14.00,2013-03-20 20:07:00,
2013-03-20 14:08:00,46.6,16.0,0.00,East,101,5.8,10.1,29,0.00,,---,0.00,VWS V14.00,2013-03-20 20:08:00,
2013-03-20 14:09:00,46.6,16.0,0.00,SE,124,7.6,10.1,29,0.00,,---,0.00,VWS V14.00,2013-03-20 20:09:00,
2013-03-20 14:12:00,46.8,16.2,0.00,SE,145,6.7,6.7,29,0.00,,---,0.00,VWS V14.00,2013-03-20 20:12:00,
2013-03-20 14:13:00,46.8,16.2,0.00,SE,133,5.8,8.3,29,0.00,,---,0.00,VWS V14.00,2013-03-20 20:13:00,
2013-03-20 14:14:00,46.8,16.2,0.00,East,95,3.6,4.9,29,0.00,,---,0.00,VWS V14.00,2013-03-20 20:14:00,
2013-03-20 14:17:00,46.9,16.4,0.00,ESE,113,4.0,5.8,29,0.00,,---,0.00,VWS V14.00,2013-03-20 20:17:00,
2013-03-20 14:19:00,46.9,16.4,0.00,East,88,8.1,8.1,29,0.00,,---,0.00,VWS V14.00,2013-03-20 20:19:00,
2013-03-20 14:22:00,46.9,16.4,0.00,South,183,5.4,10.5,29,0.00,,---,0.00,VWS V14.00,2013-03-20 20:22:00,
2013-03-20 14:23:00,46.9,16.4,0.00,WSW,243,0.0,5.4,29,0.00,,---,0.00,VWS V14.00,2013-03-20 20:23:00,
2013-03-20 14:24:00,46.9,16.4,0.00,SW,221,3.1,5.4,29,0.00,,---,0.00,VWS V14.00,2013-03-20 20:24:00,
2013-03-20 14:25:00,46.9,16.4,0.00,SSW,199,7.6,11.0,29,0.00,,---,0.00,VWS V14.00,2013-03-20 20:25:00,
2013-03-20 14:27:00,46.9,16.4,0.00,East,101,3.6,5.8,29,0.00,,---,0.00,VWS V14.00,2013-03-20 20:27:00,
2013-03-20 14:28:00,46.9,16.4,0.00,SSW,210,4.0,8.7,29,0.00,,---,0.00,VWS V14.00,2013-03-20 20:28:00,
2013-03-20 14:29:00,46.9,16.4,0.00,ENE,70,3.1,3.6,29,0.00,,---,0.00,VWS V14.00,2013-03-20 20:29:00,
2013-03-20 14:30:00,46.9,16.4,0.00,East,85,7.6,9.6,29,0.00,,---,0.00,VWS V14.00,2013-03-20 20:30:00,
2013-03-20 14:32:00,46.9,16.4,0.00,SSE,148,11.0,11.0,29,0.00,,---,0.00,VWS V14.00,2013-03-20 20:32:00,
2013-03-20 14:33:00,46.9,16.4,0.00,SE,132,5.4,11.0,29,0.00,,---,0.00,VWS V14.00,2013-03-20 20:33:00,
2013-03-20 14:34:00,46.9,16.4,0.00,SE,131,5.4,6.3,29,0.00,,---,0.00,VWS V14.00,2013-03-20 20:34:00,
2013-03-20 14:35:00,46.9,16.4,0.00,ESE,108,5.8,9.2,29,0.00,,---,0.00,VWS V14.00,2013-03-20 20:35:00,
2013-03-20 14:37:00,46.9,16.4,0.00,ESE,115,7.6,7.6,29,0.00,,---,0.00,VWS V14.00,2013-03-20 20:37:00,
2013-03-20 14:38:00,46.9,16.4,0.00,SSE,167,3.1,7.6,29,0.00,,---,0.00,VWS V14.00,2013-03-20 20:38:00,
2013-03-20 14:39:00,46.9,16.4,0.00,SE,131,7.6,7.6,29,0.00,,---,0.00,VWS V14.00,2013-03-20 20:39:00,
2013-03-20 14:40:00,46.9,16.4,0.00,ESE,106,4.0,7.6,29,0.00,,---,0.00,VWS V14.00,2013-03-20 20:40:00,
2013-03-20 14:42:00,47.1,16.5,0.00,SSW,192,4.0,6.3,29,0.00,,---,0.00,VWS V14.00,2013-03-20 20:42:00,
2013-03-20 14:43:00,47.1,16.5,0.00,ESE,122,8.1,14.5,29,0.00,,---,0.00,VWS V14.00,2013-03-20 20:43:00,
2013-03-20 14:44:00,47.1,16.5,0.00,SSE,157,3.6,12.3,29,0.00,,---,0.00,VWS V14.00,2013-03-20 20:44:00,
2013-03-20 14:45:00,47.1,16.5,0.00,SE,136,8.7,8.7,29,0.00,,---,0.00,VWS V14.00,2013-03-20 20:45:00,
2013-03-20 14:47:00,47.1,16.5,0.00,East,93,6.7,6.7,29,0.00,,---,0.00,VWS V14.00,2013-03-20 20:47:00,
2013-03-20 14:48:00,47.1,16.5,0.00,East,86,5.8,5.8,29,0.00,,---,0.00,VWS V14.00,2013-03-20 20:48:00,
2013-03-20 14:49:00,47.1,16.5,0.00,SSE,165,5.4,11.4,29,0.00,,---,0.00,VWS V14.00,2013-03-20 20:49:00,
2013-03-20 14:50:00,47.1,16.5,0.00,ESE,121,6.3,8.1,29,0.00,,---,0.00,VWS V14.00,2013-03-20 20:50:00,
2013-03-20 14:52:00,47.3,16.7,0.00,SE,126,10.1,10.1,29,0.00,,---,0.00,VWS V14.00,2013-03-20 20:52:00,
2013-03-20 14:53:00,47.3,16.7,0.00,NE,47,12.8,12.8,29,0.00,,---,0.00,VWS V14.00,2013-03-20 20:53:00,
2013-03-20 14:54:00,47.3,16.7,0.00,ESE,120,6.3,6.3,29,0.00,,---,0.00,VWS V14.00,2013-03-20 20:54:00,
2013-03-20 14:55:00,47.3,16.7,0.00,ENE,68,10.1,10.1,29,0.00,,---,0.00,VWS V14.00,2013-03-20 20:55:00,
2013-03-20 14:57:00,47.3,16.7,0.00,SSE,161,4.0,4.0,29,0.00,,---,0.00,VWS V14.00,2013-03-20 20:57:00,
2013-03-20 14:58:00,47.3,16.7,0.00,SE,135,8.3,8.3,29,0.00,,---,0.00,VWS V14.00,2013-03-20 20:58:00,
2013-03-20 14:59:00,47.3,16.7,0.00,NNE,19,8.7,8.7,29,0.00,,---,0.00,VWS V14.00,2013-03-20 20:59:00,
2013-03-20 15:00:00,47.1,16.5,0.00,ENE,77,4.9,6.3,29,0.00,,---,0.00,VWS V14.00,2013-03-20 21:00:00,
2013-03-20 15:02:00,47.1,16.5,0.00,WSW,248,8.3,8.3,29,0.00,,---,0.00,VWS V14.00,2013-03-20 21:02:00,
2013-03-20 15:03:00,47.1,16.5,0.00,South,183,5.8,6.7,29,0.00,,---,0.00,VWS V14.00,2013-03-20 21:03:00,
2013-03-20 15:04:00,47.1,16.5,0.00,ESE,103,6.7,6.7,29,0.00,,---,0.00,VWS V14.00,2013-03-20 21:04:00,
2013-03-20 15:05:00,47.1,16.5,0.00,SSE,168,5.4,8.1,29,0.00,,---,0.00,VWS V14.00,2013-03-20 21:05:00,
2013-03-20 15:07:00,47.3,16.7,0.00,East,100,8.1,8.1,29,0.00,,---,0.00,VWS V14.00,2013-03-20 21:07:00,
2013-03-20 15:08:00,47.3,16.7,0.00,ESE,111,5.8,5.8,29,0.00,,---,0.00,VWS V14.00,2013-03-20 21:08:00,
2013-03-20 15:09:00,47.3,16.7,0.00,SSW,199,3.1,3.1,29,0.00,,---,0.00,VWS V14.00,2013-03-20 21:09:00,
2013-03-20 15:10:00,47.3,16.7,0.00,East,90,4.0,5.8,29,0.00,,---,0.00,VWS V14.00,2013-03-20 21:10:00,
2013-03-20 15:12:00,47.3,17.5,0.00,ESE,112,3.6,6.3,30,0.00,,---,0.00,VWS V14.00,2013-03-20 21:12:00,
2013-03-20 15:13:00,47.3,17.5,0.00,SSW,209,5.8,7.6,30,0.00,,---,0.00,VWS V14.00,2013-03-20 21:13:00,
2013-03-20 15:14:00,47.3,17.5,0.00,West,263,3.6,4.0,30,0.00,,---,0.00,VWS V14.00,2013-03-20 21:14:00,
2013-03-20 15:15:00,47.3,17.5,0.00,SE,140,4.0,8.1,30,0.00,,---,0.00,VWS V14.00,2013-03-20 21:15:00,
2013-03-20 15:17:00,47.3,16.7,0.00,SE,133,5.8,7.2,29,0.00,,---,0.00,VWS V14.00,2013-03-20 21:17:00,
2013-03-20 15:18:00,47.3,17.5,0.00,SE,127,3.6,3.6,30,0.00,,---,0.00,VWS V14.00,2013-03-20 21:18:00,
2013-03-20 15:19:00,47.3,17.5,0.00,SE,138,4.9,10.1,30,0.00,,---,0.00,VWS V14.00,2013-03-20 21:19:00,
2013-03-20 15:20:00,47.3,17.5,0.00,ESE,123,3.6,6.3,30,0.00,,---,0.00,VWS V14.00,2013-03-20 21:20:00,
2013-03-20 15:23:00,47.3,17.5,0.00,SSE,154,4.0,4.0,30,0.00,,---,0.00,VWS V14.00,2013-03-20 21:23:00,
2013-03-20 15:24:00,47.3,17.5,0.00,ENE,74,3.1,13.2,30,0.00,,---,0.00,VWS V14.00,2013-03-20 21:24:00,
2013-03-20 15:27:00,47.3,17.5,0.00,ESE,118,4.0,5.8,30,0.00,,---,0.00,VWS V14.00,2013-03-20 21:27:00,
2013-03-20 15:28:00,47.3,17.5,0.00,South,178,3.1,5.4,30,0.00,,---,0.00,VWS V14.00,2013-03-20 21:28:00,
2013-03-20 15:30:00,47.5,17.6,0.00,SE,135,4.9,6.3,30,0.00,,---,0.00,VWS V14.00,2013-03-20 21:30:00,
2013-03-20 15:32:00,47.5,17.6,0.00,ESE,118,2.7,2.7,30,0.00,,---,0.00,VWS V14.00,2013-03-20 21:32:00,
2013-03-20 15:33:00,47.5,17.6,0.00,West,260,0.0,3.1,30,0.00,,---,0.00,VWS V14.00,2013-03-20 21:33:00,
2013-03-20 15:34:00,47.5,17.6,0.00,SE,131,5.4,5.4,30,0.00,,---,0.00,VWS V14.00,2013-03-20 21:34:00,
2013-03-20 15:35:00,47.5,17.6,0.00,ESE,113,2.7,2.7,30,0.00,,---,0.00,VWS V14.00,2013-03-20 21:35:00,
2013-03-20 15:37:00,47.7,17.8,0.00,SW,235,3.6,3.6,30,0.00,,---,0.00,VWS V14.00,2013-03-20 21:37:00,
2013-03-20 15:38:00,47.7,17.8,0.00,SE,142,8.1,8.1,30,0.00,,---,0.00,VWS V14.00,2013-03-20 21:38:00,
2013-03-20 15:39:00,47.7,17.8,0.00,East,82,6.3,8.1,30,0.00,,---,0.00,VWS V14.00,2013-03-20 21:39:00,
2013-03-20 15:40:00,47.7,17.8,0.00,SW,229,2.2,4.0,30,0.00,,---,0.00,VWS V14.00,2013-03-20 21:40:00,
2013-03-20 15:42:00,47.5,17.6,0.00,NNW,328,0.0,3.1,30,0.00,,---,0.00,VWS V14.00,2013-03-20 21:42:00,
2013-03-20 15:43:00,47.5,17.6,0.00,NW,318,3.6,3.6,30,0.00,,---,0.00,VWS V14.00,2013-03-20 21:43:00,
2013-03-20 15:44:00,47.5,17.6,0.00,NNW,333,2.7,3.6,30,0.00,,---,0.00,VWS V14.00,2013-03-20 21:44:00,
2013-03-20 15:45:00,47.7,17.8,0.00,NNW,333,0.0,0.0,30,0.00,,---,0.00,VWS V14.00,2013-03-20 21:45:00,
2013-03-20 15:47:00,47.7,17.8,0.00,WNW,303,0.0,0.0,30,0.00,,---,0.00,VWS V14.00,2013-03-20 21:47:00,
2013-03-20 15:48:00,47.7,17.8,0.00,NW,321,3.6,3.6,30,0.00,,---,0.00,VWS V14.00,2013-03-20 21:48:00,
2013-03-20 15:49:00,47.7,17.8,0.00,WSW,258,4.9,5.4,30,0.00,,---,0.00,VWS V14.00,2013-03-20 21:49:00,
2013-03-20 15:50:00,47.7,17.8,0.00,ESE,120,4.9,4.9,30,0.00,,---,0.00,VWS V14.00,2013-03-20 21:50:00,
2013-03-20 15:53:00,47.7,17.8,0.00,SW,214,0.0,3.6,30,0.00,,---,0.00,VWS V14.00,2013-03-20 21:53:00,
2013-03-20 15:54:00,47.7,17.8,0.00,NW,318,3.6,4.0,30,0.00,,---,0.00,VWS V14.00,2013-03-20 21:54:00,
2013-03-20 15:55:00,47.7,17.8,0.00,West,265,0.0,0.0,30,0.00,,---,0.00,VWS V14.00,2013-03-20 21:55:00,
2013-03-20 15:58:00,47.7,17.8,0.00,SW,224,3.1,3.6,30,0.00,,---,0.00,VWS V14.00,2013-03-20 21:58:00,
2013-03-20 15:59:00,47.7,17.8,0.00,SW,219,0.0,0.0,30,0.00,,---,0.00,VWS V14.00,2013-03-20 21:59:00,
2013-03-20 16:00:00,47.5,17.6,0.00,SSW,208,0.0,0.0,30,0.00,,---,0.00,VWS V14.00,2013-03-20 22:00:00,
2013-03-20 16:03:00,47.5,17.6,0.00,East,82,4.9,4.9,30,0.00,,---,0.00,VWS V14.00,2013-03-20 22:03:00,
2013-03-20 16:04:00,47.5,17.6,0.00,ESE,123,12.3,12.3,30,0.00,,---,0.00,VWS V14.00,2013-03-20 22:04:00,
2013-03-20 16:05:00,47.5,17.6,0.00,North,4,4.9,5.8,30,0.00,,---,0.00,VWS V14.00,2013-03-20 22:05:00,
2013-03-20 16:08:00,47.5,17.6,0.00,SSE,149,4.9,4.9,30,0.00,,---,0.00,VWS V14.00,2013-03-20 22:08:00,
2013-03-20 16:09:00,47.5,17.6,0.00,South,172,3.6,5.4,30,0.00,,---,0.00,VWS V14.00,2013-03-20 22:09:00,
2013-03-20 16:10:00,47.3,17.5,0.00,NW,313,5.4,7.6,30,0.00,,---,0.00,VWS V14.00,2013-03-20 22:10:00,
2013-03-20 16:13:00,47.3,17.5,0.00,SW,224,0.0,0.0,30,0.00,,---,0.00,VWS V14.00,2013-03-20 22:13:00,
2013-03-20 16:14:00,47.3,17.5,0.00,SW,224,0.0,0.0,30,0.00,,---,0.00,VWS V14.00,2013-03-20 22:14:00,
2013-03-20 16:15:00,47.3,17.5,0.00,SSW,211,0.0,0.0,30,0.00,,---,0.00,VWS V14.00,2013-03-20 22:15:00,
2013-03-20 16:18:00,47.3,17.5,0.00,WNW,300,3.6,3.6,30,0.00,,---,0.00,VWS V14.00,2013-03-20 22:18:00,
2013-03-20 16:19:00,47.5,17.6,0.00,WNW,302,3.1,3.6,30,0.00,,---,0.00,VWS V14.00,2013-03-20 22:19:00,
2013-03-20 16:21:00,47.5,17.6,0.00,ENE,74,3.6,3.6,30,0.00,,---,0.00,VWS V14.00,2013-03-20 22:21:00,
2013-03-20 16:23:00,47.5,17.6,0.00,ENE,78,4.0,4.0,30,0.00,,---,0.00,VWS V14.00,2013-03-20 22:23:00,
2013-03-20 16:24:00,47.5,17.6,0.00,East,86,4.0,4.0,30,0.00,,---,0.00,VWS V14.00,2013-03-20 22:24:00,
2013-03-20 16:26:00,47.5,17.6,0.00,NW,312,5.4,6.3,30,0.00,,---,0.00,VWS V14.00,2013-03-20 22:26:00,
2013-03-20 16:29:00,47.5,17.6,0.00,SE,136,4.0,4.0,30,0.00,,---,0.00,VWS V14.00,2013-03-20 22:29:00,
2013-03-20 16:31:00,47.3,17.5,0.00,ESE,117,8.1,8.1,30,0.00,,---,0.00,VWS V14.00,2013-03-20 22:31:00,
2013-03-20 16:34:00,47.3,17.5,0.00,SE,139,13.2,13.2,30,0.00,,---,0.00,VWS V14.00,2013-03-20 22:34:00,
2013-03-20 16:37:00,47.3,17.5,0.00,East,100,7.2,7.6,30,0.00,,---,0.00,VWS V14.00,2013-03-20 22:37:00,
2013-03-20 16:39:00,47.1,17.3,0.00,SE,146,3.1,4.5,30,0.00,,---,0.00,VWS V14.00,2013-03-20 22:39:00,
2013-03-20 16:42:00,47.1,17.3,0.00,SE,140,17.0,17.4,30,0.00,,---,0.00,VWS V14.00,2013-03-20 22:42:00,
2013-03-20 16:44:00,46.9,17.1,0.00,ESE,110,6.3,8.7,30,0.00,,---,0.00,VWS V14.00,2013-03-20 22:44:00,
2013-03-20 16:47:00,46.9,17.1,0.00,WNW,283,5.4,8.7,30,0.00,,---,0.00,VWS V14.00,2013-03-20 22:47:00,
2013-03-20 16:49:00,46.8,17.0,0.00,East,90,7.6,7.6,30,0.00,,---,0.00,VWS V14.00,2013-03-20 22:49:00,
2013-03-20 16:52:00,46.6,16.8,0.00,NNE,33,9.6,13.2,30,0.00,,---,0.00,VWS V14.00,2013-03-20 22:52:00,
2013-03-20 16:54:00,46.2,16.5,0.00,NE,41,4.9,6.7,30,0.00,,---,0.00,VWS V14.00,2013-03-20 22:54:00,
2013-03-20 16:57:00,46.2,16.5,0.00,SE,143,7.6,7.6,30,0.00,,---,0.00,VWS V14.00,2013-03-20 22:57:00,
2013-03-20 16:59:00,46.2,16.5,0.00,ENE,66,8.3,8.7,30,0.00,,---,0.00,VWS V14.00,2013-03-20 22:59:00,
2013-03-20 17:02:00,46.0,16.4,0.00,SE,132,3.6,3.6,30,0.00,,---,0.00,VWS V14.00,2013-03-20 23:02:00,
2013-03-20 17:04:00,46.0,16.4,0.00,East,91,5.8,7.2,30,0.00,,---,0.00,VWS V14.00,2013-03-20 23:04:00,
2013-03-20 17:05:00,46.0,16.4,0.00,ENE,66,3.1,7.2,30,0.00,,---,0.00,VWS V14.00,2013-03-20 23:05:00,
2013-03-20 17:07:00,46.0,17.1,0.00,SE,132,5.4,7.2,31,0.00,,---,0.00,VWS V14.00,2013-03-20 23:07:00,
2013-03-20 17:09:00,46.0,16.4,0.00,ESE,111,8.3,12.8,30,0.00,,---,0.00,VWS V14.00,2013-03-20 23:09:00,
2013-03-20 17:10:00,45.9,16.2,0.00,East,84,4.0,12.8,30,0.00,,---,0.00,VWS V14.00,2013-03-20 23:10:00,
2013-03-20 17:12:00,45.9,16.2,0.00,East,84,4.9,7.6,30,0.00,,---,0.00,VWS V14.00,2013-03-20 23:12:00,
2013-03-20 17:15:00,45.7,16.0,0.00,ENE,69,8.1,8.7,30,0.00,,---,0.00,VWS V14.00,2013-03-20 23:15:00,
2013-03-20 17:17:00,45.3,15.7,0.00,NE,49,5.4,5.4,30,0.00,,---,0.00,VWS V14.00,2013-03-20 23:17:00,
2013-03-20 17:20:00,45.3,15.7,0.00,ESE,123,4.9,4.9,30,0.00,,---,0.00,VWS V14.00,2013-03-20 23:20:00,
2013-03-20 17:22:00,45.1,16.3,0.00,East,98,6.3,6.3,31,0.00,,---,0.00,VWS V14.00,2013-03-20 23:22:00,
2013-03-20 17:25:00,45.0,16.2,0.00,ESE,102,8.7,13.2,31,0.00,,---,0.00,VWS V14.00,2013-03-20 23:25:00,
2013-03-20 17:26:00,44.8,16.0,0.00,East,84,3.6,10.5,31,0.00,,---,0.00,VWS V14.00,2013-03-20 23:26:00,
2013-03-20 17:27:00,44.8,15.3,0.00,East,94,4.0,6.7,30,0.00,,---,0.00,VWS V14.00,2013-03-20 23:27:00,
2013-03-20 17:30:00,44.6,15.9,0.00,West,272,14.5,14.5,31,0.00,,---,0.00,VWS V14.00,2013-03-20 23:30:00,
2013-03-20 17:31:00,44.4,15.7,0.00,West,265,4.0,14.5,31,0.00,,---,0.00,VWS V14.00,2013-03-20 23:31:00,
2013-03-20 17:32:00,44.2,15.5,0.00,WSW,243,8.3,8.3,31,0.00,,---,0.00,VWS V14.00,2013-03-20 23:32:00,
2013-03-20 17:35:00,44.1,15.4,0.00,NNE,29,4.0,8.7,31,0.00,,---,0.00,VWS V14.00,2013-03-20 23:35:00,
2013-03-20 17:36:00,44.1,15.4,0.00,WNW,302,4.0,5.8,31,0.00,,---,0.00,VWS V14.00,2013-03-20 23:36:00,
2013-03-20 17:37:00,44.1,15.4,0.00,ESE,114,5.8,6.3,31,0.00,,---,0.00,VWS V14.00,2013-03-20 23:37:00,
2013-03-20 17:40:00,44.1,15.4,0.00,SSW,193,3.1,7.2,31,0.00,,---,0.00,VWS V14.00,2013-03-20 23:40:00,
2013-03-20 17:41:00,43.9,15.2,0.00,West,269,5.8,5.8,31,0.00,,---,0.00,VWS V14.00,2013-03-20 23:41:00,
2013-03-20 17:43:00,43.9,15.2,0.00,East,93,4.0,4.0,31,0.00,,---,0.00,VWS V14.00,2013-03-20 23:43:00,
2013-03-20 17:45:00,43.9,15.2,0.00,NNW,337,3.6,10.1,31,0.00,,---,0.00,VWS V14.00,2013-03-20 23:45:00,
2013-03-20 17:46:00,43.7,15.1,0.00,ESE,107,8.1,8.7,31,0.00,,---,0.00,VWS V14.00,2013-03-20 23:46:00,
2013-03-20 17:48:00,43.7,15.1,0.00,SE,131,5.8,11.0,31,0.00,,---,0.00,VWS V14.00,2013-03-20 23:48:00,
2013-03-20 17:50:00,43.5,14.9,0.00,SE,129,9.6,9.6,31,0.00,,---,0.00,VWS V14.00,2013-03-20 23:50:00,
2013-03-20 17:52:00,43.3,14.8,0.00,NNW,343,12.8,17.0,31,0.00,,---,0.00,VWS V14.00,2013-03-20 23:52:00,
2013-03-20 17:53:00,43.2,14.6,0.00,ESE,103,5.4,12.8,31,0.00,,---,0.00,VWS V14.00,2013-03-20 23:53:00,
2013-03-20 17:55:00,43.0,14.4,0.00,ENE,76,4.0,5.8,31,0.00,,---,0.00,VWS V14.00,2013-03-20 23:55:00,
2013-03-20 17:57:00,43.0,14.4,0.00,NW,320,5.8,5.8,31,0.00,,---,0.00,VWS V14.00,2013-03-20 23:57:00,
2013-03-20 17:58:00,42.8,14.3,0.00,NE,36,5.4,5.4,31,0.00,,---,0.00,VWS V14.00,2013-03-20 23:58:00,
2013-03-20 18:00:00,42.8,14.3,0.00,East,92,6.3,11.0,31,0.00,,---,0.00,VWS V14.00,2013-03-21 00:00:00,
2013-03-20 18:02:00,42.6,14.8,0.00,SE,132,9.6,12.3,32,0.00,,---,0.00,VWS V14.00,2013-03-21 00:02:00,
2013-03-20 18:03:00,42.4,14.7,0.00,East,84,6.3,12.3,32,0.00,,---,0.00,VWS V14.00,2013-03-21 00:03:00,
2013-03-20 18:05:00,42.4,14.7,0.00,ENE,61,3.1,4.0,32,0.00,,---,0.00,VWS V14.00,2013-03-21 00:05:00,
2013-03-20 18:06:00,42.3,14.5,0.00,East,85,3.1,4.0,32,0.00,,---,0.00,VWS V14.00,2013-03-21 00:06:00,
2013-03-20 18:08:00,42.3,14.5,0.00,ENE,73,2.7,4.9,32,0.00,,---,0.00,VWS V14.00,2013-03-21 00:08:00,
2013-03-20 18:10:00,42.1,14.4,0.00,NE,53,0.0,4.9,32,0.00,,---,0.00,VWS V14.00,2013-03-21 00:10:00,
2013-03-20 18:11:00,42.1,14.4,0.00,NE,53,0.0,0.0,32,0.00,,---,0.00,VWS V14.00,2013-03-21 00:11:00,
2013-03-20 18:13:00,42.1,14.4,0.00,NW,320,3.1,3.1,32,0.00,,---,0.00,VWS V14.00,2013-03-21 00:13:00,
2013-03-20 18:16:00,41.9,14.2,0.00,ESE,109,6.3,8.1,32,0.00,,---,0.00,VWS V14.00,2013-03-21 00:16:00,
2013-03-20 18:17:00,41.9,14.2,0.00,ESE,114,5.4,8.7,32,0.00,,---,0.00,VWS V14.00,2013-03-21 00:17:00,
2013-03-20 18:18:00,41.7,14.1,0.00,SW,227,0.0,5.4,32,0.00,,---,0.00,VWS V14.00,2013-03-21 00:18:00,
2013-03-20 18:22:00,41.5,13.9,0.00,South,190,2.7,3.1,32,0.00,,---,0.00,VWS V14.00,2013-03-21 00:22:00,
2013-03-20 18:23:00,41.5,13.9,0.00,South,190,0.0,0.0,32,0.00,,---,0.00,VWS V14.00,2013-03-21 00:23:00,
2013-03-20 18:27:00,41.4,13.7,0.00,ESE,115,3.1,3.6,32,0.00,,---,0.00,VWS V14.00,2013-03-21 00:27:00,
2013-03-20 18:28:00,41.4,13.7,0.00,East,99,6.3,6.3,32,0.00,,---,0.00,VWS V14.00,2013-03-21 00:28:00,
2013-03-20 18:32:00,41.0,13.4,0.00,NE,49,3.1,5.8,32,0.00,,---,0.00,VWS V14.00,2013-03-21 00:32:00,
2013-03-20 18:33:00,41.0,13.4,0.00,East,96,6.3,6.7,32,0.00,,---,0.00,VWS V14.00,2013-03-21 00:33:00,
2013-03-20 18:34:00,41.0,13.4,0.00,NE,55,3.6,6.7,32,0.00,,---,0.00,VWS V14.00,2013-03-21 00:34:00,
2013-03-20 18:37:00,40.6,13.8,0.00,ESE,109,5.8,5.8,33,0.00,,---,0.00,VWS V14.00,2013-03-21 00:37:00,
2013-03-20 18:38:00,40.6,13.8,0.00,ESE,103,3.6,3.6,33,0.00,,---,0.00,VWS V14.00,2013-03-21 00:38:00,
2013-03-20 18:39:00,40.5,13.6,0.00,SE,136,5.4,5.4,33,0.00,,---,0.00,VWS V14.00,2013-03-21 00:39:00,
2013-03-20 18:42:00,40.5,13.6,0.00,East,100,4.0,6.3,33,0.00,,---,0.00,VWS V14.00,2013-03-21 00:42:00,
2013-03-20 18:43:00,40.3,13.5,0.00,WNW,298,0.0,5.4,33,0.00,,---,0.00,VWS V14.00,2013-03-21 00:43:00,
2013-03-20 18:44:00,40.3,13.5,0.00,ENE,78,2.7,2.7,33,0.00,,---,0.00,VWS V14.00,2013-03-21 00:44:00,
2013-03-20 18:47:00,40.1,13.3,0.00,ESE,103,3.1,8.3,33,0.00,,---,0.00,VWS V14.00,2013-03-21 00:47:00,
2013-03-20 18:48:00,40.1,13.3,0.00,ENE,63,3.1,8.7,33,0.00,,---,0.00,VWS V14.00,2013-03-21 00:48:00,
2013-03-20 18:49:00,39.9,13.2,0.00,West,265,8.7,8.7,33,0.00,,---,0.00,VWS V14.00,2013-03-21 00:49:00,
2013-03-20 18:52:00,39.7,13.0,0.00,ENE,61,3.1,4.9,33,0.00,,---,0.00,VWS V14.00,2013-03-21 00:52:00,
2013-03-20 18:53:00,39.7,13.0,0.00,East,101,7.6,7.6,33,0.00,,---,0.00,VWS V14.00,2013-03-21 00:53:00,
2013-03-20 18:54:00,39.6,12.9,0.00,ENE,61,2.2,5.4,33,0.00,,---,0.00,VWS V14.00,2013-03-21 00:54:00,
2013-03-20 18:58:00,39.4,12.7,0.00,SSE,152,0.0,8.7,33,0.00,,---,0.00,VWS V14.00,2013-03-21 00:58:00,
2013-03-20 18:59:00,39.4,12.7,0.00,NW,306,4.0,6.3,33,0.00,,---,0.00,VWS V14.00,2013-03-21 00:59:00,
2013-03-20 19:03:00,39.2,12.5,0.00,SW,231,2.2,5.8,33,0.00,,---,0.00,VWS V14.00,2013-03-21 01:03:00,
2013-03-20 19:04:00,39.0,13.0,0.00,NW,322,4.9,5.8,34,0.00,,---,0.00,VWS V14.00,2013-03-21 01:04:00,
2013-03-20 19:08:00,38.8,12.9,0.00,ENE,61,2.7,2.7,34,0.00,,---,0.00,VWS V14.00,2013-03-21 01:08:00,
2013-03-20 19:09:00,38.8,12.9,0.00,WNW,282,2.7,5.8,34,0.00,,---,0.00,VWS V14.00,2013-03-21 01:09:00,
2013-03-20 19:13:00,38.7,12.7,0.00,NE,47,2.2,2.7,34,0.00,,---,0.00,VWS V14.00,2013-03-21 01:13:00,
2013-03-20 19:14:00,38.7,12.7,0.00,NNW,337,3.1,3.1,34,0.00,,---,0.00,VWS V14.00,2013-03-21 01:14:00,
2013-03-20 19:18:00,38.3,12.4,0.00,SE,132,8.7,8.7,34,0.00,,---,0.00,VWS V14.00,2013-03-21 01:18:00,
2013-03-20 19:19:00,38.3,12.4,0.00,SE,127,8.3,8.3,34,0.00,,---,0.00,VWS V14.00,2013-03-21 01:19:00,
2013-03-20 19:23:00,37.9,12.1,0.00,SW,225,2.7,3.1,34,0.00,,---,0.00,VWS V14.00,2013-03-21 01:23:00,
2013-03-20 19:24:00,37.9,12.1,0.00,SE,129,0.0,3.1,34,0.00,,---,0.00,VWS V14.00,2013-03-21 01:24:00,
2013-03-20 19:28:00,37.8,11.9,0.00,East,91,5.8,7.2,34,0.00,,---,0.00,VWS V14.00,2013-03-21 01:28:00,
2013-03-20 19:29:00,37.8,11.9,0.00,WNW,295,4.0,4.0,34,0.00,,---,0.00,VWS V14.00,2013-03-21 01:29:00,
2013-03-20 19:33:00,37.6,12.4,0.00,South,178,5.8,14.5,35,0.00,,---,0.00,VWS V14.00,2013-03-21 01:33:00,
2013-03-20 19:34:00,37.4,12.3,0.00,SW,214,3.6,3.6,35,0.00,,---,0.00,VWS V14.00,2013-03-21 01:34:00,
2013-03-20 19:35:00,37.4,12.3,0.00,WNW,299,5.4,5.4,35,0.00,,---,0.00,VWS V14.00,2013-03-21 01:35:00,
2013-03-20 19:38:00,37.2,12.1,0.00,SSW,212,6.3,8.7,35,0.00,,---,0.00,VWS V14.00,2013-03-21 01:38:00,
2013-03-20 19:39:00,37.2,12.1,0.00,ESE,108,5.4,8.1,35,0.00,,---,0.00,VWS V14.00,2013-03-21 01:39:00,
2013-03-20 19:40:00,37.0,12.6,0.00,NE,53,5.8,8.1,36,0.00,,---,0.00,VWS V14.00,2013-03-21 01:40:00,
2013-03-20 19:44:00,36.9,12.4,0.00,SE,127,5.4,13.2,36,0.00,,---,0.00,VWS V14.00,2013-03-21 01:44:00,
2013-03-20 19:45:00,36.9,12.4,0.00,SSE,166,8.7,13.2,36,0.00,,---,0.00,VWS V14.00,2013-03-21 01:45:00,
2013-03-20 19:49:00,36.7,12.3,0.00,East,82,5.4,13.2,36,0.00,,---,0.00,VWS V14.00,2013-03-21 01:49:00,
2013-03-20 19:50:00,36.7,12.3,0.00,East,101,8.3,13.2,36,0.00,,---,0.00,VWS V14.00,2013-03-21 01:50:00,
2013-03-20 19:54:00,36.5,12.7,0.00,SSE,147,15.0,15.0,37,0.00,,---,0.00,VWS V14.00,2013-03-21 01:54:00,
2013-03-20 19:55:00,36.3,12.6,0.00,ESE,123,10.1,15.0,37,0.00,,---,0.00,VWS V14.00,2013-03-21 01:55:00,
2013-03-20 19:59:00,36.3,12.6,0.00,ESE,112,13.2,13.6,37,0.00,,---,0.00,VWS V14.00,2013-03-21 01:59:00,
2013-03-20 20:00:00,36.3,13.2,0.00,SSE,163,9.6,9.6,38,0.00,,---,0.00,VWS V14.00,2013-03-21 02:00:00,
2013-03-20 20:04:00,36.1,13.0,0.00,East,96,9.6,13.2,38,0.00,,---,0.00,VWS V14.00,2013-03-21 02:04:00,
2013-03-20 20:05:00,36.1,13.0,0.00,ENE,68,5.4,5.4,38,0.00,,---,0.00,VWS V14.00,2013-03-21 02:05:00,
2013-03-20 20:10:00,35.8,13.3,0.00,ESE,118,12.3,12.3,39,0.00,,---,0.00,VWS V14.00,2013-03-21 02:10:00,
2013-03-20 20:11:00,35.8,13.3,0.00,ESE,115,11.9,13.2,39,0.00,,---,0.00,VWS V14.00,2013-03-21 02:11:00,
2013-03-20 20:15:00,35.8,13.3,0.00,NNE,31,5.8,11.0,39,0.00,,---,0.00,VWS V14.00,2013-03-21 02:15:00,
2013-03-20 20:16:00,35.8,13.3,0.00,ESE,111,8.1,11.0,39,0.00,,---,0.00,VWS V14.00,2013-03-21 02:16:00,
2013-03-20 20:20:00,35.6,13.1,0.00,SSE,152,10.1,10.1,39,0.00,,---,0.00,VWS V14.00,2013-03-21 02:20:00,
2013-03-20 20:21:00,35.6,13.1,0.00,East,83,7.6,10.1,39,0.00,,---,0.00,VWS V14.00,2013-03-21 02:21:00,
2013-03-20 20:25:00,35.6,13.1,0.00,SE,134,8.7,17.4,39,0.00,,---,0.00,VWS V14.00,2013-03-21 02:25:00,
2013-03-20 20:26:00,35.6,13.1,0.00,East,79,10.1,17.4,39,0.00,,---,0.00,VWS V14.00,2013-03-21 02:26:00,
2013-03-20 20:30:00,35.4,13.5,0.00,East,88,7.6,11.9,40,0.00,,---,0.00,VWS V14.00,2013-03-21 02:30:00,
2013-03-20 20:31:00,35.4,13.5,0.00,East,88,7.6,11.9,40,0.00,,---,0.00,VWS V14.00,2013-03-21 02:31:00,
2013-03-20 20:32:00,35.4,13.5,0.00,East,101,5.4,10.1,40,0.00,,---,0.00,VWS V14.00,2013-03-21 02:32:00,
2013-03-20 20:36:00,35.4,13.5,0.00,NE,53,13.2,13.2,40,0.00,,---,0.00,VWS V14.00,2013-03-21 02:36:00,
2013-03-20 20:37:00,35.4,13.5,0.00,ESE,122,8.1,15.0,40,0.00,,---,0.00,VWS V14.00,2013-03-21 02:37:00,
2013-03-20 20:41:00,35.4,13.5,0.00,SSW,211,8.1,12.3,40,0.00,,---,0.00,VWS V14.00,2013-03-21 02:41:00,
2013-03-20 20:42:00,35.2,13.4,0.00,ESE,117,7.6,8.1,40,0.00,,---,0.00,VWS V14.00,2013-03-21 02:42:00,
2013-03-20 20:46:00,35.2,13.4,0.00,ENE,77,14.1,14.5,40,0.00,,---,0.00,VWS V14.00,2013-03-21 02:46:00,
2013-03-20 20:47:00,35.2,13.4,0.00,ESE,121,8.7,10.5,40,0.00,,---,0.00,VWS V14.00,2013-03-21 02:47:00,
2013-03-20 20:51:00,35.1,13.2,0.00,SSE,147,10.1,13.2,40,0.00,,---,0.00,VWS V14.00,2013-03-21 02:51:00,
2013-03-20 20:52:00,35.1,13.2,0.00,East,86,13.2,18.8,40,0.00,,---,0.00,VWS V14.00,2013-03-21 02:52:00,
2013-03-20 20:56:00,35.1,13.2,0.00,SW,225,14.1,14.1,40,0.00,,---,0.00,VWS V14.00,2013-03-21 02:56:00,
2013-03-20 20:57:00,35.1,13.2,0.00,ESE,121,25.1,25.1,40,0.00,,---,0.00,VWS V14.00,2013-03-21 02:57:00,
2013-03-20 21:01:00,35.1,13.2,0.00,SE,125,15.9,15.9,40,0.00,,---,0.00,VWS V14.00,2013-03-21 03:01:00,
2013-03-20 21:02:00,35.1,13.2,0.00,ENE,66,13.2,15.9,40,0.00,,---,0.00,VWS V14.00,2013-03-21 03:02:00,
2013-03-20 21:03:00,35.1,13.2,0.00,East,89,12.3,19.2,40,0.00,,---,0.00,VWS V14.00,2013-03-21 03:03:00,
2013-03-20 21:06:00,34.9,13.6,0.00,ESE,107,8.3,15.4,41,0.00,,---,0.00,VWS V14.00,2013-03-21 03:06:00,
2013-03-20 21:07:00,34.9,13.6,0.00,SE,130,8.3,15.4,41,0.00,,---,0.00,VWS V14.00,2013-03-21 03:07:00,
2013-03-20 21:09:00,34.9,13.6,0.00,SSW,202,5.8,16.8,41,0.00,,---,0.00,VWS V14.00,2013-03-21 03:09:00,
2013-03-20 21:12:00,34.9,13.6,0.00,ESE,111,8.3,16.8,41,0.00,,---,0.00,VWS V14.00,2013-03-21 03:12:00,
2013-03-20 21:14:00,34.9,13.6,0.00,ESE,115,12.8,12.8,41,0.00,,---,0.00,VWS V14.00,2013-03-21 03:14:00,
2013-03-20 21:17:00,34.7,13.4,0.00,ESE,123,13.2,13.2,41,0.00,,---,0.00,VWS V14.00,2013-03-21 03:17:00,
2013-03-20 21:19:00,34.7,13.4,0.00,SE,127,8.3,8.3,41,0.00,,---,0.00,VWS V14.00,2013-03-21 03:19:00,
2013-03-20 21:22:00,34.7,13.4,0.00,ESE,111,11.4,12.3,41,0.00,,---,0.00,VWS V14.00,2013-03-21 03:22:00,
2013-03-20 21:24:00,34.7,13.4,0.00,East,90,15.4,17.0,41,0.00,,---,0.00,VWS V14.00,2013-03-21 03:24:00,
2013-03-20 21:27:00,34.5,13.3,0.00,SE,125,7.6,7.6,41,0.00,,---,0.00,VWS V14.00,2013-03-21 03:27:00,
2013-03-20 21:28:00,34.5,13.3,0.00,East,98,8.7,11.0,41,0.00,,---,0.00,VWS V14.00,2013-03-21 03:28:00,
2013-03-20 21:29:00,34.5,13.3,0.00,East,101,6.3,7.6,41,0.00,,---,0.00,VWS V14.00,2013-03-21 03:29:00,
2013-03-20 21:32:00,34.5,13.3,0.00,East,90,15.0,15.0,41,0.00,,---,0.00,VWS V14.00,2013-03-21 03:32:00,
2013-03-20 21:33:00,34.5,13.3,0.00,ESE,112,16.8,16.8,41,0.00,,---,0.00,VWS V14.00,2013-03-21 03:33:00,
2013-03-20 21:34:00,34.5,13.3,0.00,ESE,118,11.0,11.4,41,0.00,,---,0.00,VWS V14.00,2013-03-21 03:34:00,
2013-03-20 21:37:00,34.5,13.3,0.00,WNW,287,14.5,14.5,41,0.00,,---,0.00,VWS V14.00,2013-03-21 03:37:00,
2013-03-20 21:38:00,34.5,13.3,0.00,SE,141,5.4,14.5,41,0.00,,---,0.00,VWS V14.00,2013-03-21 03:38:00,
2013-03-20 21:40:00,34.5,13.3,0.00,East,87,8.1,10.5,41,0.00,,---,0.00,VWS V14.00,2013-03-21 03:40:00,
2013-03-20 21:42:00,34.3,13.1,0.00,ESE,106,10.1,10.1,41,0.00,,---,0.00,VWS V14.00,2013-03-21 03:42:00,
2013-03-20 21:43:00,34.3,13.1,0.00,ESE,103,15.0,15.0,41,0.00,,---,0.00,VWS V14.00,2013-03-21 03:43:00,
2013-03-20 21:45:00,34.3,13.1,0.00,ENE,69,14.5,14.5,41,0.00,,---,0.00,VWS V14.00,2013-03-21 03:45:00,
2013-03-20 21:47:00,34.3,13.1,0.00,ESE,116,14.5,25.1,41,0.00,,---,0.00,VWS V14.00,2013-03-21 03:47:00,
2013-03-20 21:48:00,34.3,13.1,0.00,ESE,123,19.7,19.7,41,0.00,,---,0.00,VWS V14.00,2013-03-21 03:48:00,
2013-03-20 21:49:00,34.3,13.1,0.00,SE,125,8.3,22.8,41,0.00,,---,0.00,VWS V14.00,2013-03-21 03:49:00,
2013-03-20 21:50:00,34.3,13.1,0.00,East,96,12.8,17.4,41,0.00,,---,0.00,VWS V14.00,2013-03-21 03:50:00,
2013-03-20 21:52:00,34.3,13.1,0.00,NE,45,10.1,12.8,41,0.00,,---,0.00,VWS V14.00,2013-03-21 03:52:00,
2013-03-20 21:53:00,34.3,13.1,0.00,ESE,120,12.8,19.2,41,0.00,,---,0.00,VWS V14.00,2013-03-21 03:53:00,
2013-03-20 21:54:00,34.3,13.1,0.00,ESE,106,17.0,19.2,41,0.00,,---,0.00,VWS V14.00,2013-03-21 03:54:00,
2013-03-20 21:56:00,34.3,13.1,0.00,ESE,114,8.3,19.2,41,0.00,,---,0.00,VWS V14.00,2013-03-21 03:56:00,
2013-03-20 21:57:00,34.3,13.1,0.00,NE,34,19.7,20.6,41,0.00,,---,0.00,VWS V14.00,2013-03-21 03:57:00,
2013-03-20 21:58:00,34.3,13.1,0.00,ENE,65,13.2,17.4,41,0.00,,---,0.00,VWS V14.00,2013-03-21 03:58:00,
2013-03-20 21:59:00,34.3,13.1,0.00,ESE,103,13.2,17.9,41,0.00,,---,0.00,VWS V14.00,2013-03-21 03:59:00,
2013-03-20 22:00:00,34.3,13.1,0.00,ESE,116,12.8,12.8,41,0.00,,---,0.00,VWS V14.00,2013-03-21 04:00:00,
2013-03-20 22:05:00,34.2,12.9,0.00,SE,124,15.9,15.9,41,0.00,,---,0.00,VWS V14.00,2013-03-21 04:05:00,
2013-03-20 22:10:00,34.2,12.9,0.00,SE,134,11.9,17.4,41,0.00,,---,0.00,VWS V14.00,2013-03-21 04:10:00,
2013-03-20 22:15:00,34.2,12.9,0.00,ENE,69,14.5,23.7,41,0.00,,---,0.00,VWS V14.00,2013-03-21 04:15:00,
2013-03-20 22:20:00,34.2,12.9,0.00,SE,125,10.5,19.7,41,0.00,,---,0.00,VWS V14.00,2013-03-21 04:20:00,
2013-03-20 22:21:00,34.2,12.9,0.00,East,95,11.4,11.4,41,0.00,,---,0.00,VWS V14.00,2013-03-21 04:21:00,
2013-03-20 22:25:00,34.0,12.8,0.00,East,93,11.9,17.4,41,0.00,,---,0.00,VWS V14.00,2013-03-21 04:25:00,
2013-03-20 22:26:00,34.0,12.8,0.00,ESE,120,13.2,17.4,41,0.00,,---,0.00,VWS V14.00,2013-03-21 04:26:00,
2013-03-20 22:30:00,34.0,12.8,0.00,SE,131,19.2,19.2,41,0.00,,---,0.00,VWS V14.00,2013-03-21 04:30:00,
2013-03-20 22:31:00,34.0,12.8,0.00,East,85,6.3,8.7,41,0.00,,---,0.00,VWS V14.00,2013-03-21 04:31:00,
2013-03-20 22:32:00,34.0,12.8,0.00,ESE,119,12.3,12.3,41,0.00,,---,0.00,VWS V14.00,2013-03-21 04:32:00,
2013-03-20 22:35:00,34.0,13.3,0.00,SE,139,11.0,15.4,42,0.00,,---,0.00,VWS V14.00,2013-03-21 04:35:00,
2013-03-20 22:36:00,34.0,13.3,0.00,East,100,15.4,15.4,42,0.00,,---,0.00,VWS V14.00,2013-03-21 04:36:00,
2013-03-20 22:37:00,34.0,13.3,0.00,ESE,103,8.7,15.4,42,0.00,,---,0.00,VWS V14.00,2013-03-21 04:37:00,
2013-03-20 22:40:00,34.0,13.3,0.00,ESE,108,12.8,19.7,42,0.00,,---,0.00,VWS V14.00,2013-03-21 04:40:00,
2013-03-20 22:41:00,34.0,13.3,0.00,ESE,120,15.0,22.8,42,0.00,,---,0.00,VWS V14.00,2013-03-21 04:41:00,
2013-03-20 22:42:00,34.0,13.3,0.00,East,99,12.8,15.0,42,0.00,,---,0.00,VWS V14.00,2013-03-21 04:42:00,
2013-03-20 22:45:00,33.8,13.1,0.00,SE,140,11.4,20.6,42,0.00,,---,0.00,VWS V14.00,2013-03-21 04:45:00,
2013-03-20 22:46:00,33.8,13.1,0.00,SE,124,10.5,10.5,42,0.00,,---,0.00,VWS V14.00,2013-03-21 04:46:00,
2013-03-20 22:47:00,33.8,13.1,0.00,East,80,8.7,10.5,42,0.00,,---,0.00,VWS V14.00,2013-03-21 04:47:00,
2013-03-20 22:50:00,33.8,13.1,0.00,ESE,108,12.8,16.8,42,0.00,,---,0.00,VWS V14.00,2013-03-21 04:50:00,
2013-03-20 22:52:00,33.8,13.1,0.00,ESE,119,11.0,13.6,42,0.00,,---,0.00,VWS V14.00,2013-03-21 04:52:00,
2013-03-20 22:56:00,33.8,13.1,0.00,SSE,153,13.6,13.6,42,0.00,,---,0.00,VWS V14.00,2013-03-21 04:56:00,
2013-03-20 22:57:00,33.8,13.1,0.00,ESE,110,15.4,15.4,42,0.00,,---,0.00,VWS V14.00,2013-03-21 04:57:00,
2013-03-20 22:58:00,33.8,13.1,0.00,ESE,114,11.0,15.4,42,0.00,,---,0.00,VWS V14.00,2013-03-21 04:58:00,
2013-03-20 23:01:00,33.8,13.1,0.00,East,81,13.2,13.2,42,0.00,,---,0.00,VWS V14.00,2013-03-21 05:01:00,
2013-03-20 23:02:00,33.8,13.1,0.00,ESE,120,12.8,15.4,42,0.00,,---,0.00,VWS V14.00,2013-03-21 05:02:00,
2013-03-20 23:03:00,33.8,13.1,0.00,SE,128,14.5,18.3,42,0.00,,---,0.00,VWS V14.00,2013-03-21 05:03:00,
2013-03-20 23:06:00,33.8,13.1,0.00,East,93,8.1,14.1,42,0.00,,---,0.00,VWS V14.00,2013-03-21 05:06:00,
2013-03-20 23:07:00,33.8,13.1,0.00,ESE,120,15.4,15.4,42,0.00,,---,0.00,VWS V14.00,2013-03-21 05:07:00,
2013-03-20 23:08:00,33.8,13.1,0.00,SE,143,11.0,15.4,42,0.00,,---,0.00,VWS V14.00,2013-03-21 05:08:00,
2013-03-20 23:12:00,33.8,13.1,0.00,SE,129,10.5,15.0,42,0.00,,---,0.00,VWS V14.00,2013-03-21 05:12:00,
2013-03-20 23:13:00,33.8,13.1,0.00,ENE,76,16.8,20.1,42,0.00,,---,0.00,VWS V14.00,2013-03-21 05:13:00,
2013-03-20 23:17:00,33.8,13.1,0.00,SE,133,12.8,16.8,42,0.00,,---,0.00,VWS V14.00,2013-03-21 05:17:00,
2013-03-20 23:18:00,33.6,13.0,0.00,ESE,103,9.2,15.4,42,0.00,,---,0.00,VWS V14.00,2013-03-21 05:18:00,
2013-03-20 23:22:00,33.6,13.0,0.00,ESE,112,12.8,15.4,42,0.00,,---,0.00,VWS V14.00,2013-03-21 05:22:00,
2013-03-20 23:23:00,33.6,13.0,0.00,East,85,17.4,17.4,42,0.00,,---,0.00,VWS V14.00,2013-03-21 05:23:00,
2013-03-20 23:27:00,33.6,13.0,0.00,SE,130,6.3,6.3,42,0.00,,---,0.00,VWS V14.00,2013-03-21 05:27:00,
2013-03-20 23:28:00,33.6,13.0,0.00,ESE,111,10.1,15.9,42,0.00,,---,0.00,VWS V14.00,2013-03-21 05:28:00,
2013-03-20 23:32:00,33.6,13.0,0.00,East,84,15.9,15.9,42,0.00,,---,0.00,VWS V14.00,2013-03-21 05:32:00,
2013-03-20 23:33:00,33.6,13.0,0.00,East,101,10.5,14.5,42,0.00,,---,0.00,VWS V14.00,2013-03-21 05:33:00,
2013-03-20 23:34:00,33.6,13.0,0.00,ESE,108,15.0,15.0,42,0.00,,---,0.00,VWS V14.00,2013-03-21 05:34:00,
2013-03-20 23:37:00,33.6,13.0,0.00,ESE,107,11.9,15.0,42,0.00,,---,0.00,VWS V14.00,2013-03-21 05:37:00,
2013-03-20 23:38:00,33.6,13.0,0.00,East,83,7.6,12.8,42,0.00,,---,0.00,VWS V14.00,2013-03-21 05:38:00,
2013-03-20 23:39:00,33.6,13.0,0.00,ENE,77,19.2,19.2,42,0.00,,---,0.00,VWS V14.00,2013-03-21 05:39:00,
2013-03-20 23:42:00,33.6,13.0,0.00,ESE,112,15.0,18.3,42,0.00,,---,0.00,VWS V14.00,2013-03-21 05:42:00,
2013-03-20 23:43:00,33.6,13.0,0.00,East,84,12.8,18.3,42,0.00,,---,0.00,VWS V14.00,2013-03-21 05:43:00,
2013-03-20 23:44:00,33.6,13.0,0.00,East,98,14.5,15.4,42,0.00,,---,0.00,VWS V14.00,2013-03-21 05:44:00,
2013-03-20 23:48:00,33.6,13.0,0.00,ESE,113,15.0,20.6,42,0.00,,---,0.00,VWS V14.00,2013-03-21 05:48:00,
2013-03-20 23:49:00,33.6,13.0,0.00,ESE,113,10.1,15.4,42,0.00,,---,0.00,VWS V14.00,2013-03-21 05:49:00,
2013-03-20 23:53:00,33.6,13.0,0.00,ESE,115,14.5,17.4,42,0.00,,---,0.00,VWS V14.00,2013-03-21 05:53:00,
2013-03-20 23:54:00,33.6,13.0,0.00,ESE,111,17.0,17.0,42,0.00,,---,0.00,VWS V14.00,2013-03-21 05:54:00,
2013-03-20 23:58:00,33.6,13.0,0.00,ESE,112,15.4,15.4,42,0.00,,---,0.00,VWS V14.00,2013-03-21 05:58:00,
2013-03-20 23:59:00,33.6,13.0,0.00,ESE,119,12.8,12.8,42,0.00,,---,0.00,VWS V14.00,2013-03-21 05:59:00,